Wetterdaten: Samstag, 31.12.2022
Datum Zeit Temp. Aussen Temp. o. S. Temp +5cm Feuchte Auss Luftdruck Regen Sonnenschein Regendauer Solar Windben Empfang
31.12.2022 00:00 13,3 C 12,8 C 8,9 C 95 % 1005,2 hPa 0,0 l/m 0 min 0 min 0 W/m 22,5 km/h (4 Bft) 97,87 %
31.12.2022 00:02 13,3 C 12,8 C 8,9 C 95 % 1005,2 hPa 0,0 l/m 0 min 0 min 0 W/m 25,7 km/h (4 Bft) 95,12 %
31.12.2022 00:04 13,4 C 12,8 C 8,9 C 95 % 1005,2 hPa 0,0 l/m 0 min 0 min 0 W/m 29,0 km/h (5 Bft) 95,74 %
31.12.2022 00:08 13,5 C 12,8 C 8,9 C 95 % 1005,2 hPa 0,0 l/m 0 min 0 min 0 W/m 29,0 km/h (5 Bft) 96,81 %
31.12.2022 00:10 13,5 C 12,8 C 8,9 C 95 % 1005,1 hPa 0,0 l/m 0 min 0 min 0 W/m 22,5 km/h (4 Bft) 97,87 %
31.12.2022 00:12 13,5 C 12,8 C 8,9 C 95 % 1005,2 hPa 0,0 l/m 0 min 0 min 0 W/m 32,2 km/h (5 Bft) 97,83 %
31.12.2022 00:14 13,6 C 12,8 C 8,9 C 94 % 1005,2 hPa 0,0 l/m 0 min 0 min 0 W/m 22,5 km/h (4 Bft) 95,74 %
31.12.2022 00:16 13,6 C 12,8 C 8,9 C 94 % 1005,2 hPa 0,0 l/m 0 min 0 min 0 W/m 22,5 km/h (4 Bft) 97,87 %
31.12.2022 00:18 13,6 C 12,8 C 8,9 C 94 % 1005,1 hPa 0,0 l/m 0 min 0 min 0 W/m 16,1 km/h (3 Bft) 97,87 %
31.12.2022 00:20 13,6 C 12,8 C 8,9 C 94 % 1005,2 hPa 0,0 l/m 0 min 0 min 0 W/m 22,5 km/h (4 Bft) 97,87 %
31.12.2022 00:22 13,6 C 12,8 C 8,9 C 94 % 1005,1 hPa 0,0 l/m 0 min 0 min 0 W/m 25,7 km/h (4 Bft) 97,87 %
31.12.2022 00:24 13,7 C 12,8 C 8,9 C 94 % 1005,1 hPa 0,0 l/m 0 min 0 min 0 W/m 35,4 km/h (5 Bft) 97,87 %
31.12.2022 00:26 13,7 C 12,8 C 8,9 C 94 % 1005,0 hPa 0,0 l/m 0 min 0 min 0 W/m 25,7 km/h (4 Bft) 97,83 %
31.12.2022 00:28 13,7 C 13,3 C 8,9 C 94 % 1005,1 hPa 0,0 l/m 0 min 0 min 0 W/m 22,5 km/h (4 Bft) 95,74 %
31.12.2022 00:30 13,7 C 12,8 C 8,9 C 93 % 1005,0 hPa 0,0 l/m 0 min 0 min 0 W/m 19,3 km/h (3 Bft) 97,87 %
31.12.2022 00:32 13,7 C 12,8 C 8,9 C 93 % 1005,0 hPa 0,0 l/m 0 min 0 min 0 W/m 25,7 km/h (4 Bft) 97,87 %
31.12.2022 00:34 13,7 C 12,8 C 8,9 C 93 % 1005,1 hPa 0,0 l/m 0 min 2 min 0 W/m 25,7 km/h (4 Bft) 95,74 %
31.12.2022 00:36 13,7 C 12,8 C 8,9 C 93 % 1004,9 hPa 0,0 l/m 0 min 2 min 0 W/m 32,2 km/h (5 Bft) 93,62 %
31.12.2022 00:38 13,8 C 12,8 C 8,9 C 93 % 1005,0 hPa 0,0 l/m 0 min 2 min 0 W/m 29,0 km/h (5 Bft) 97,83 %
31.12.2022 00:40 13,8 C 12,8 C 8,9 C 93 % 1005,0 hPa 0,0 l/m 0 min 2 min 0 W/m 22,5 km/h (4 Bft) 97,87 %
31.12.2022 00:42 13,8 C 12,8 C 8,9 C 93 % 1004,9 hPa 0,0 l/m 0 min 2 min 0 W/m 32,2 km/h (5 Bft) 95,74 %
31.12.2022 00:44 13,8 C 12,8 C 8,9 C 93 % 1005,0 hPa 0,0 l/m 0 min 2 min 0 W/m 19,3 km/h (3 Bft) 97,87 %
31.12.2022 00:46 13,8 C 12,8 C 8,9 C 93 % 1005,0 hPa 0,0 l/m 0 min 2 min 0 W/m 41,8 km/h (6 Bft) 97,87 %
31.12.2022 00:48 13,8 C 12,8 C 8,9 C 93 % 1005,1 hPa 0,0 l/m 0 min 2 min 0 W/m 32,2 km/h (5 Bft) 97,87 %
31.12.2022 00:50 13,8 C 12,8 C 8,9 C 92 % 1005,0 hPa 0,0 l/m 0 min 2 min 0 W/m 29,0 km/h (5 Bft) 97,83 %
31.12.2022 00:52 13,8 C 12,8 C 8,9 C 92 % 1005,2 hPa 0,0 l/m 0 min 2 min 0 W/m 35,4 km/h (5 Bft) 95,74 %
31.12.2022 00:54 13,8 C 12,8 C 8,9 C 92 % 1005,3 hPa 0,0 l/m 0 min 2 min 0 W/m 38,6 km/h (5 Bft) 97,87 %
31.12.2022 00:56 13,8 C 12,8 C 8,9 C 93 % 1005,2 hPa 0,2 l/m 0 min 2 min 0 W/m 22,5 km/h (4 Bft) 95,74 %
31.12.2022 00:58 13,8 C 12,2 C 8,9 C 93 % 1005,3 hPa 0,0 l/m 0 min 2 min 0 W/m 29,0 km/h (5 Bft) 95,74 %
31.12.2022 01:00 13,7 C 12,2 C 8,9 C 93 % 1005,3 hPa 0,0 l/m 0 min 2 min 0 W/m 45,1 km/h (6 Bft) 100,00 %
31.12.2022 01:02 13,6 C 12,2 C 8,9 C 93 % 1005,1 hPa 0,0 l/m 0 min 2 min 0 W/m 48,3 km/h (6 Bft) 100,00 %
31.12.2022 01:04 13,6 C 12,2 C 8,9 C 93 % 1005,1 hPa 0,0 l/m 0 min 2 min 0 W/m 25,7 km/h (4 Bft) 100,00 %
31.12.2022 01:06 13,6 C 12,2 C 8,9 C 93 % 1005,0 hPa 0,0 l/m 0 min 2 min 0 W/m 12,9 km/h (3 Bft) 100,00 %
31.12.2022 01:08 13,4 C 12,2 C 8,9 C 93 % 1005,0 hPa 0,0 l/m 0 min 2 min 0 W/m 19,3 km/h (3 Bft) 100,00 %
31.12.2022 01:10 13,4 C 12,2 C 8,9 C 93 % 1005,0 hPa 0,0 l/m 0 min 2 min 0 W/m 19,3 km/h (3 Bft) 97,87 %
31.12.2022 01:12 13,4 C 12,2 C 8,9 C 94 % 1005,0 hPa 0,0 l/m 0 min 2 min 0 W/m 22,5 km/h (4 Bft) 97,87 %
31.12.2022 01:14 13,4 C 12,2 C 8,9 C 94 % 1005,1 hPa 0,0 l/m 0 min 2 min 0 W/m 16,1 km/h (3 Bft) 97,87 %
31.12.2022 01:16 13,3 C 12,2 C 8,9 C 94 % 1004,9 hPa 0,0 l/m 0 min 2 min 0 W/m 16,1 km/h (3 Bft) 97,83 %
31.12.2022 01:18 13,3 C 12,2 C 8,9 C 94 % 1005,0 hPa 0,0 l/m 0 min 0 min 0 W/m 12,9 km/h (3 Bft) 97,73 %
31.12.2022 01:20 13,3 C 12,2 C 8,9 C 94 % 1004,9 hPa 0,0 l/m 0 min 0 min 0 W/m 29,0 km/h (5 Bft) 97,96 %
31.12.2022 01:22 13,3 C 12,2 C 8,9 C 94 % 1004,9 hPa 0,0 l/m 0 min 0 min 0 W/m 22,5 km/h (4 Bft) 95,74 %
31.12.2022 01:24 13,3 C 12,2 C 8,9 C 95 % 1004,9 hPa 0,0 l/m 0 min 0 min 0 W/m 12,9 km/h (3 Bft) 97,87 %
31.12.2022 01:26 13,3 C 12,2 C 8,9 C 95 % 1004,9 hPa 0,0 l/m 0 min 0 min 0 W/m 16,1 km/h (3 Bft) 95,83 %
31.12.2022 01:28 13,3 C 12,2 C 8,9 C 95 % 1005,0 hPa 0,0 l/m 0 min 0 min 0 W/m 19,3 km/h (3 Bft) 97,87 %
31.12.2022 01:30 13,3 C 12,2 C 8,9 C 95 % 1004,9 hPa 0,0 l/m 0 min 0 min 0 W/m 16,1 km/h (3 Bft) 97,83 %
31.12.2022 01:32 13,3 C 12,2 C 8,9 C 95 % 1004,9 hPa 0,0 l/m 0 min 0 min 0 W/m 9,7 km/h (2 Bft) 97,73 %
31.12.2022 01:34 13,3 C 12,2 C 8,9 C 95 % 1004,9 hPa 0,0 l/m 0 min 0 min 0 W/m 16,1 km/h (3 Bft) 97,96 %
31.12.2022 01:36 13,3 C 12,2 C 8,9 C 95 % 1004,9 hPa 0,0 l/m 0 min 0 min 0 W/m 9,7 km/h (2 Bft) 97,87 %
31.12.2022 01:38 13,3 C 12,2 C 8,9 C 95 % 1004,9 hPa 0,0 l/m 0 min 0 min 0 W/m 12,9 km/h (3 Bft) 95,83 %
31.12.2022 01:40 13,2 C 12,2 C 8,9 C 95 % 1004,8 hPa 0,0 l/m 0 min 0 min 0 W/m 6,4 km/h (2 Bft) 95,74 %
31.12.2022 01:42 13,2 C 12,2 C 8,9 C 96 % 1004,8 hPa 0,0 l/m 0 min 0 min 0 W/m 12,9 km/h (3 Bft) 97,87 %
31.12.2022 01:44 13,2 C 12,2 C 8,9 C 96 % 1004,8 hPa 0,0 l/m 0 min 0 min 0 W/m 16,1 km/h (3 Bft) 97,83 %
31.12.2022 01:46 13,2 C 12,2 C 8,9 C 96 % 1004,7 hPa 0,0 l/m 0 min 0 min 0 W/m 12,9 km/h (3 Bft) 97,87 %
31.12.2022 01:48 13,2 C 12,2 C 8,9 C 96 % 1004,6 hPa 0,0 l/m 0 min 0 min 0 W/m 12,9 km/h (3 Bft) 97,87 %
31.12.2022 01:50 13,2 C 12,2 C 8,9 C 96 % 1004,6 hPa 0,0 l/m 0 min 0 min 0 W/m 12,9 km/h (3 Bft) 97,87 %
31.12.2022 01:52 13,2 C 12,2 C 8,9 C 96 % 1004,5 hPa 0,0 l/m 0 min 0 min 0 W/m 12,9 km/h (3 Bft) 97,87 %
31.12.2022 01:54 13,2 C 12,8 C 8,9 C 96 % 1004,5 hPa 0,0 l/m 0 min 0 min 0 W/m 16,1 km/h (3 Bft) 95,74 %
31.12.2022 01:56 13,2 C 12,8 C 8,9 C 96 % 1004,5 hPa 0,0 l/m 0 min 0 min 0 W/m 22,5 km/h (4 Bft) 95,65 %
31.12.2022 01:58 13,3 C 12,8 C 8,9 C 96 % 1004,4 hPa 0,0 l/m 0 min 0 min 0 W/m 22,5 km/h (4 Bft) 100,00 %
31.12.2022 02:00 13,3 C 12,8 C 8,9 C 96 % 1004,3 hPa 0,0 l/m 0 min 0 min 0 W/m 19,3 km/h (3 Bft) 100,00 %
31.12.2022 02:02 13,3 C 12,8 C 9,4 C 96 % 1004,4 hPa 0,0 l/m 0 min 0 min 0 W/m 25,7 km/h (4 Bft) 100,00 %
31.12.2022 02:04 13,4 C 12,8 C 9,4 C 96 % 1004,4 hPa 0,0 l/m 0 min 0 min 0 W/m 25,7 km/h (4 Bft) 100,00 %
31.12.2022 02:06 13,4 C 13,3 C 9,4 C 96 % 1004,4 hPa 0,0 l/m 0 min 0 min 0 W/m 38,6 km/h (5 Bft) 97,87 %
31.12.2022 02:08 13,6 C 13,3 C 9,4 C 96 % 1004,4 hPa 0,0 l/m 0 min 0 min 0 W/m 19,3 km/h (3 Bft) 100,00 %
31.12.2022 02:10 13,6 C 13,3 C 9,4 C 96 % 1004,5 hPa 0,0 l/m 0 min 0 min 0 W/m 29,0 km/h (5 Bft) 97,83 %
31.12.2022 02:17 13,9 C 13,3 C 9,4 C 95 % 1004,4 hPa 0,0 l/m 0 min 0 min 0 W/m 32,2 km/h (5 Bft) 98,77 %
31.12.2022 02:18 13,9 C 13,3 C 9,4 C 95 % 1004,4 hPa 0,0 l/m 0 min 0 min 0 W/m 16,1 km/h (3 Bft) 100,00 %
31.12.2022 02:20 14,1 C 13,9 C 10,0 C 95 % 1004,6 hPa 0,0 l/m 0 min 0 min 0 W/m 38,6 km/h (5 Bft) 97,87 %
31.12.2022 02:22 14,1 C 13,9 C 10,0 C 95 % 1004,5 hPa 0,0 l/m 0 min 0 min 0 W/m 29,0 km/h (5 Bft) 97,83 %
31.12.2022 02:24 14,2 C 13,9 C 10,0 C 95 % 1004,4 hPa 0,0 l/m 0 min 0 min 0 W/m 29,0 km/h (5 Bft) 97,87 %
31.12.2022 02:26 14,3 C 13,9 C 10,6 C 94 % 1004,4 hPa 0,0 l/m 0 min 0 min 0 W/m 29,0 km/h (5 Bft) 93,62 %
31.12.2022 02:28 14,3 C 13,9 C 10,6 C 94 % 1004,4 hPa 0,0 l/m 0 min 0 min 0 W/m 25,7 km/h (4 Bft) 95,74 %
31.12.2022 02:30 14,3 C 13,9 C 10,6 C 94 % 1004,4 hPa 0,0 l/m 0 min 0 min 0 W/m 25,7 km/h (4 Bft) 95,74 %
31.12.2022 02:32 14,3 C 13,9 C 10,6 C 94 % 1004,3 hPa 0,0 l/m 0 min 0 min 0 W/m 29,0 km/h (5 Bft) 95,74 %
31.12.2022 02:34 14,4 C 13,9 C 10,6 C 93 % 1004,3 hPa 0,0 l/m 0 min 2 min 0 W/m 22,5 km/h (4 Bft) 95,65 %
31.12.2022 02:36 14,4 C 13,9 C 10,6 C 93 % 1004,3 hPa 0,0 l/m 0 min 2 min 0 W/m 35,4 km/h (5 Bft) 95,74 %
31.12.2022 02:38 14,6 C 13,9 C 10,6 C 93 % 1004,3 hPa 0,0 l/m 0 min 2 min 0 W/m 35,4 km/h (5 Bft) 95,74 %
31.12.2022 02:40 14,7 C 13,9 C 10,6 C 93 % 1004,4 hPa 0,0 l/m 0 min 2 min 0 W/m 41,8 km/h (6 Bft) 93,62 %
31.12.2022 02:42 14,8 C 14,4 C 10,6 C 92 % 1004,5 hPa 0,0 l/m 0 min 2 min 0 W/m 48,3 km/h (6 Bft) 95,74 %
31.12.2022 02:44 14,8 C 14,4 C 10,6 C 92 % 1004,5 hPa 0,0 l/m 0 min 2 min 0 W/m 38,6 km/h (5 Bft) 95,74 %
31.12.2022 02:46 14,9 C 14,4 C 11,1 C 92 % 1004,5 hPa 0,0 l/m 0 min 2 min 0 W/m 35,4 km/h (5 Bft) 93,62 %
31.12.2022 02:48 14,9 C 13,9 C 11,1 C 91 % 1004,4 hPa 0,0 l/m 0 min 2 min 0 W/m 35,4 km/h (5 Bft) 95,65 %
31.12.2022 02:50 15,0 C 13,9 C 11,1 C 91 % 1004,4 hPa 0,0 l/m 0 min 2 min 0 W/m 38,6 km/h (5 Bft) 95,74 %
31.12.2022 02:52 15,1 C 14,4 C 11,1 C 91 % 1004,7 hPa 0,0 l/m 0 min 2 min 0 W/m 51,5 km/h (7 Bft) 93,62 %
31.12.2022 02:54 15,1 C 14,4 C 11,1 C 91 % 1004,4 hPa 0,0 l/m 0 min 2 min 0 W/m 41,8 km/h (6 Bft) 95,74 %
31.12.2022 02:56 15,1 C 14,4 C 11,1 C 91 % 1004,5 hPa 0,0 l/m 0 min 2 min 0 W/m 61,2 km/h (7 Bft) 95,74 %
31.12.2022 02:58 15,1 C 14,4 C 11,1 C 91 % 1004,4 hPa 0,0 l/m 0 min 2 min 0 W/m 54,7 km/h (7 Bft) 95,83 %
31.12.2022 03:00 15,1 C 14,4 C 11,1 C 90 % 1004,5 hPa 0,0 l/m 0 min 2 min 0 W/m 77,2 km/h (9 Bft) 97,87 %
31.12.2022 03:02 15,2 C 14,4 C 11,1 C 90 % 1004,4 hPa 0,0 l/m 0 min 2 min 0 W/m 48,3 km/h (6 Bft) 95,74 %
31.12.2022 03:04 15,2 C 14,4 C 11,1 C 90 % 1004,6 hPa 0,0 l/m 0 min 2 min 0 W/m 29,0 km/h (5 Bft) 97,87 %
31.12.2022 03:06 15,2 C 14,4 C 11,1 C 90 % 1004,4 hPa 0,0 l/m 0 min 0 min 0 W/m 51,5 km/h (7 Bft) 97,92 %
31.12.2022 03:08 15,2 C 14,4 C 11,1 C 90 % 1004,6 hPa 0,0 l/m 0 min 0 min 0 W/m 38,6 km/h (5 Bft) 97,83 %
31.12.2022 03:10 15,2 C 14,4 C 11,1 C 90 % 1004,3 hPa 0,0 l/m 0 min 0 min 0 W/m 35,4 km/h (5 Bft) 100,00 %
31.12.2022 03:12 15,3 C 14,4 C 11,1 C 89 % 1004,5 hPa 0,0 l/m 0 min 0 min 0 W/m 48,3 km/h (6 Bft) 100,00 %
31.12.2022 03:14 15,3 C 14,4 C 11,7 C 89 % 1004,5 hPa 0,0 l/m 0 min 0 min 0 W/m 41,8 km/h (6 Bft) 100,00 %
31.12.2022 03:16 15,3 C 14,4 C 11,1 C 89 % 1004,3 hPa 0,0 l/m 0 min 0 min 0 W/m 51,5 km/h (7 Bft) 100,00 %
31.12.2022 03:18 15,3 C 14,4 C 11,1 C 89 % 1004,3 hPa 0,0 l/m 0 min 0 min 0 W/m 22,5 km/h (4 Bft) 100,00 %
31.12.2022 03:20 15,3 C 14,4 C 11,1 C 89 % 1004,3 hPa 0,0 l/m 0 min 0 min 0 W/m 29,0 km/h (5 Bft) 100,00 %
31.12.2022 03:22 15,4 C 14,4 C 11,1 C 88 % 1004,5 hPa 0,0 l/m 0 min 0 min 0 W/m 64,4 km/h (8 Bft) 100,00 %
31.12.2022 03:24 15,4 C 14,4 C 11,1 C 88 % 1004,6 hPa 0,0 l/m 0 min 2 min 0 W/m 35,4 km/h (5 Bft) 100,00 %
31.12.2022 03:26 15,4 C 14,4 C 11,1 C 88 % 1004,3 hPa 0,0 l/m 0 min 0 min 0 W/m 35,4 km/h (5 Bft) 100,00 %
31.12.2022 03:28 15,4 C 14,4 C 11,1 C 88 % 1004,4 hPa 0,0 l/m 0 min 0 min 0 W/m 38,6 km/h (5 Bft) 100,00 %
31.12.2022 03:30 15,4 C 14,4 C 11,1 C 88 % 1004,5 hPa 0,0 l/m 0 min 0 min 0 W/m 38,6 km/h (5 Bft) 100,00 %
31.12.2022 03:32 15,4 C 14,4 C 11,1 C 88 % 1004,6 hPa 0,0 l/m 0 min 0 min 0 W/m 51,5 km/h (7 Bft) 100,00 %
31.12.2022 03:34 15,4 C 14,4 C 11,1 C 88 % 1004,4 hPa 0,0 l/m 0 min 0 min 0 W/m 38,6 km/h (5 Bft) 100,00 %
31.12.2022 03:36 15,4 C 14,4 C 11,1 C 88 % 1004,5 hPa 0,0 l/m 0 min 0 min 0 W/m 29,0 km/h (5 Bft) 100,00 %
31.12.2022 03:38 15,4 C 14,4 C 11,1 C 88 % 1004,5 hPa 0,0 l/m 0 min 0 min 0 W/m 32,2 km/h (5 Bft) 100,00 %
31.12.2022 03:40 15,4 C 14,4 C 11,1 C 88 % 1004,8 hPa 0,0 l/m 0 min 0 min 0 W/m 67,6 km/h (8 Bft) 97,87 %
31.12.2022 03:42 15,5 C 15,0 C 11,1 C 87 % 1004,4 hPa 0,0 l/m 0 min 0 min 0 W/m 38,6 km/h (5 Bft) 100,00 %
31.12.2022 03:44 15,5 C 15,0 C 11,7 C 87 % 1004,4 hPa 0,0 l/m 0 min 0 min 0 W/m 41,8 km/h (6 Bft) 100,00 %
31.12.2022 03:46 15,5 C 14,4 C 11,1 C 87 % 1004,5 hPa 0,0 l/m 0 min 0 min 0 W/m 41,8 km/h (6 Bft) 100,00 %
31.12.2022 03:48 15,5 C 14,4 C 11,1 C 87 % 1004,7 hPa 0,0 l/m 0 min 0 min 0 W/m 29,0 km/h (5 Bft) 97,87 %
31.12.2022 03:50 15,6 C 14,4 C 11,1 C 87 % 1004,7 hPa 0,0 l/m 0 min 2 min 0 W/m 35,4 km/h (5 Bft) 100,00 %
31.12.2022 03:52 15,6 C 14,4 C 11,1 C 87 % 1004,6 hPa 0,0 l/m 0 min 2 min 0 W/m 25,7 km/h (4 Bft) 100,00 %
31.12.2022 03:54 15,6 C 14,4 C 11,1 C 87 % 1004,7 hPa 0,0 l/m 0 min 2 min 0 W/m 32,2 km/h (5 Bft) 97,87 %
31.12.2022 03:56 15,6 C 14,4 C 11,1 C 87 % 1004,6 hPa 0,0 l/m 0 min 2 min 0 W/m 38,6 km/h (5 Bft) 100,00 %
31.12.2022 03:58 15,6 C 13,9 C 10,6 C 87 % 1004,6 hPa 0,0 l/m 0 min 2 min 0 W/m 35,4 km/h (5 Bft) 97,87 %
31.12.2022 04:00 15,5 C 13,9 C 10,6 C 87 % 1004,8 hPa 0,0 l/m 0 min 2 min 0 W/m 35,4 km/h (5 Bft) 97,87 %
31.12.2022 04:02 15,5 C 14,4 C 10,6 C 88 % 1004,6 hPa 0,0 l/m 0 min 2 min 0 W/m 38,6 km/h (5 Bft) 97,83 %
31.12.2022 04:04 15,5 C 14,4 C 10,6 C 88 % 1004,8 hPa 0,0 l/m 0 min 2 min 0 W/m 38,6 km/h (5 Bft) 97,87 %
31.12.2022 04:06 15,5 C 14,4 C 10,6 C 88 % 1004,7 hPa 0,0 l/m 0 min 2 min 0 W/m 41,8 km/h (6 Bft) 97,87 %
31.12.2022 04:08 15,5 C 14,4 C 11,1 C 88 % 1004,8 hPa 0,0 l/m 0 min 2 min 0 W/m 51,5 km/h (7 Bft) 97,87 %
31.12.2022 04:10 15,6 C 15,0 C 11,1 C 88 % 1005,1 hPa 0,0 l/m 0 min 2 min 0 W/m 45,1 km/h (6 Bft) 95,74 %
31.12.2022 04:12 15,6 C 14,4 C 11,1 C 87 % 1004,8 hPa 0,0 l/m 0 min 2 min 0 W/m 51,5 km/h (7 Bft) 97,87 %
31.12.2022 04:14 15,6 C 15,0 C 11,1 C 87 % 1004,7 hPa 0,0 l/m 0 min 0 min 0 W/m 48,3 km/h (6 Bft) 95,74 %
31.12.2022 04:16 15,6 C 15,0 C 11,1 C 87 % 1004,9 hPa 0,0 l/m 0 min 0 min 0 W/m 45,1 km/h (6 Bft) 95,65 %
31.12.2022 04:18 15,7 C 14,4 C 11,1 C 87 % 1004,6 hPa 0,0 l/m 0 min 0 min 0 W/m 45,1 km/h (6 Bft) 97,87 %
31.12.2022 04:20 15,7 C 14,4 C 11,1 C 87 % 1004,7 hPa 0,0 l/m 0 min 2 min 0 W/m 45,1 km/h (6 Bft) 95,74 %
31.12.2022 04:22 15,7 C 14,4 C 11,1 C 87 % 1004,7 hPa 0,0 l/m 0 min 2 min 0 W/m 41,8 km/h (6 Bft) 97,87 %
31.12.2022 04:24 15,7 C 14,4 C 11,1 C 87 % 1004,7 hPa 0,0 l/m 0 min 2 min 0 W/m 29,0 km/h (5 Bft) 95,74 %
31.12.2022 04:26 15,7 C 14,4 C 11,1 C 87 % 1004,5 hPa 0,0 l/m 0 min 2 min 0 W/m 35,4 km/h (5 Bft) 95,74 %
31.12.2022 04:28 15,7 C 14,4 C 11,1 C 88 % 1004,6 hPa 0,0 l/m 0 min 2 min 0 W/m 35,4 km/h (5 Bft) 95,74 %
31.12.2022 04:30 15,7 C 14,4 C 11,1 C 88 % 1004,6 hPa 0,0 l/m 0 min 2 min 0 W/m 41,8 km/h (6 Bft) 97,83 %
31.12.2022 04:32 15,7 C 14,4 C 11,1 C 87 % 1004,7 hPa 0,0 l/m 0 min 2 min 0 W/m 45,1 km/h (6 Bft) 93,62 %
31.12.2022 04:34 15,7 C 14,4 C 11,1 C 87 % 1005,0 hPa 0,0 l/m 0 min 2 min 0 W/m 32,2 km/h (5 Bft) 95,74 %
31.12.2022 04:36 15,7 C 14,4 C 11,1 C 88 % 1004,9 hPa 0,0 l/m 0 min 2 min 0 W/m 38,6 km/h (5 Bft) 95,74 %
31.12.2022 04:38 15,7 C 15,0 C 11,1 C 88 % 1004,7 hPa 0,0 l/m 0 min 0 min 0 W/m 64,4 km/h (8 Bft) 93,62 %
31.12.2022 04:40 15,7 C 15,0 C 11,1 C 88 % 1005,0 hPa 0,0 l/m 0 min 0 min 0 W/m 45,1 km/h (6 Bft) 95,74 %
31.12.2022 04:42 15,7 C 15,0 C 11,1 C 88 % 1004,8 hPa 0,0 l/m 0 min 0 min 0 W/m 51,5 km/h (7 Bft) 95,65 %
31.12.2022 04:44 15,7 C 14,4 C 11,1 C 88 % 1005,0 hPa 0,0 l/m 0 min 0 min 0 W/m 35,4 km/h (5 Bft) 95,74 %
31.12.2022 04:46 15,6 C 14,4 C 11,1 C 88 % 1004,8 hPa 0,0 l/m 0 min 0 min 0 W/m 51,5 km/h (7 Bft) 95,74 %
31.12.2022 04:48 15,6 C 14,4 C 11,1 C 88 % 1004,8 hPa 0,0 l/m 0 min 0 min 0 W/m 67,6 km/h (8 Bft) 93,62 %
31.12.2022 04:50 15,6 C 14,4 C 11,1 C 88 % 1004,8 hPa 0,0 l/m 0 min 2 min 0 W/m 35,4 km/h (5 Bft) 97,87 %
31.12.2022 04:52 15,6 C 13,9 C 11,1 C 88 % 1004,8 hPa 0,0 l/m 0 min 2 min 0 W/m 57,9 km/h (7 Bft) 97,87 %
31.12.2022 04:54 15,6 C 13,9 C 10,6 C 88 % 1004,9 hPa 0,0 l/m 0 min 2 min 0 W/m 32,2 km/h (5 Bft) 95,74 %
31.12.2022 04:56 15,5 C 13,9 C 10,6 C 89 % 1004,9 hPa 0,0 l/m 0 min 2 min 0 W/m 35,4 km/h (5 Bft) 95,65 %
31.12.2022 04:58 15,5 C 13,9 C 10,6 C 89 % 1004,9 hPa 0,0 l/m 0 min 2 min 0 W/m 61,2 km/h (7 Bft) 100,00 %
31.12.2022 05:00 15,4 C 13,9 C 10,6 C 89 % 1004,9 hPa 0,0 l/m 0 min 2 min 0 W/m 45,1 km/h (6 Bft) 97,87 %
31.12.2022 05:02 15,4 C 14,4 C 10,6 C 89 % 1005,1 hPa 0,0 l/m 0 min 2 min 0 W/m 41,8 km/h (6 Bft) 97,87 %
31.12.2022 05:04 15,4 C 13,9 C 10,6 C 89 % 1004,9 hPa 0,0 l/m 0 min 2 min 0 W/m 57,9 km/h (7 Bft) 95,74 %
31.12.2022 05:06 15,4 C 13,9 C 10,6 C 89 % 1004,7 hPa 0,0 l/m 0 min 2 min 0 W/m 45,1 km/h (6 Bft) 97,87 %
31.12.2022 05:08 15,4 C 13,9 C 10,6 C 89 % 1004,9 hPa 0,0 l/m 0 min 2 min 0 W/m 35,4 km/h (5 Bft) 97,83 %
31.12.2022 05:10 15,3 C 13,9 C 10,6 C 89 % 1004,7 hPa 0,0 l/m 0 min 2 min 0 W/m 22,5 km/h (4 Bft) 97,73 %
31.12.2022 05:12 15,3 C 14,4 C 10,6 C 89 % 1004,8 hPa 0,0 l/m 0 min 2 min 0 W/m 45,1 km/h (6 Bft) 97,87 %
31.12.2022 05:14 15,3 C 13,9 C 10,6 C 89 % 1004,7 hPa 0,0 l/m 0 min 2 min 0 W/m 19,3 km/h (3 Bft) 98,00 %
31.12.2022 05:16 15,3 C 13,9 C 10,6 C 90 % 1004,7 hPa 0,0 l/m 0 min 2 min 0 W/m 25,7 km/h (4 Bft) 97,87 %
31.12.2022 05:18 15,2 C 14,4 C 10,6 C 90 % 1004,7 hPa 0,0 l/m 0 min 2 min 0 W/m 32,2 km/h (5 Bft) 97,87 %
31.12.2022 05:20 15,2 C 14,4 C 11,1 C 90 % 1004,9 hPa 0,0 l/m 0 min 0 min 0 W/m 54,7 km/h (7 Bft) 97,67 %
31.12.2022 05:22 15,2 C 14,4 C 11,1 C 90 % 1004,8 hPa 0,0 l/m 0 min 0 min 0 W/m 25,7 km/h (4 Bft) 96,00 %
31.12.2022 05:24 15,3 C 14,4 C 11,1 C 90 % 1004,9 hPa 0,0 l/m 0 min 0 min 0 W/m 45,1 km/h (6 Bft) 97,87 %
31.12.2022 05:26 15,3 C 14,4 C 11,1 C 89 % 1004,8 hPa 0,0 l/m 0 min 0 min 0 W/m 51,5 km/h (7 Bft) 97,87 %
31.12.2022 05:28 15,3 C 14,4 C 11,1 C 89 % 1004,7 hPa 0,0 l/m 0 min 0 min 0 W/m 51,5 km/h (7 Bft) 97,87 %
31.12.2022 05:30 15,4 C 15,0 C 11,1 C 89 % 1004,8 hPa 0,0 l/m 0 min 0 min 0 W/m 57,9 km/h (7 Bft) 97,87 %
31.12.2022 05:32 15,4 C 15,0 C 11,1 C 89 % 1004,7 hPa 0,0 l/m 0 min 0 min 0 W/m 45,1 km/h (6 Bft) 59,57 %
31.12.2022 05:34 15,5 C 14,4 C 11,1 C 89 % 1004,7 hPa 0,0 l/m 0 min 0 min 0 W/m 41,8 km/h (6 Bft) 88,24 %
31.12.2022 05:36 15,5 C 14,4 C 11,1 C 88 % 1004,8 hPa 0,0 l/m 0 min 0 min 0 W/m 45,1 km/h (6 Bft) 95,74 %
31.12.2022 05:38 15,5 C 14,4 C 11,1 C 88 % 1004,8 hPa 0,0 l/m 0 min 0 min 0 W/m 35,4 km/h (5 Bft) 97,87 %
31.12.2022 05:40 15,6 C 15,0 C 11,1 C 88 % 1004,9 hPa 0,0 l/m 0 min 0 min 0 W/m 54,7 km/h (7 Bft) 97,87 %
31.12.2022 05:42 15,6 C 15,0 C 11,1 C 88 % 1004,6 hPa 0,0 l/m 0 min 0 min 0 W/m 57,9 km/h (7 Bft) 97,87 %
31.12.2022 05:44 15,7 C 15,0 C 11,7 C 88 % 1005,1 hPa 0,0 l/m 0 min 0 min 0 W/m 61,2 km/h (7 Bft) 97,87 %
31.12.2022 05:46 15,7 C 15,0 C 11,7 C 87 % 1004,6 hPa 0,0 l/m 0 min 0 min 0 W/m 29,0 km/h (5 Bft) 97,83 %
31.12.2022 05:48 15,7 C 15,0 C 11,1 C 87 % 1004,8 hPa 0,0 l/m 0 min 0 min 0 W/m 38,6 km/h (5 Bft) 95,74 %
31.12.2022 05:50 15,7 C 15,0 C 11,1 C 87 % 1004,8 hPa 0,0 l/m 0 min 0 min 0 W/m 41,8 km/h (6 Bft) 100,00 %
31.12.2022 05:52 15,7 C 15,0 C 11,1 C 87 % 1004,8 hPa 0,0 l/m 0 min 0 min 0 W/m 48,3 km/h (6 Bft) 100,00 %
31.12.2022 05:54 15,7 C 15,0 C 11,7 C 87 % 1004,8 hPa 0,0 l/m 0 min 0 min 0 W/m 61,2 km/h (7 Bft) 97,87 %
31.12.2022 05:56 15,7 C 15,0 C 11,7 C 87 % 1005,0 hPa 0,0 l/m 0 min 0 min 0 W/m 45,1 km/h (6 Bft) 100,00 %
31.12.2022 05:58 15,8 C 15,0 C 11,7 C 87 % 1004,7 hPa 0,0 l/m 0 min 0 min 0 W/m 48,3 km/h (6 Bft) 100,00 %
31.12.2022 06:00 15,8 C 15,0 C 11,7 C 86 % 1004,7 hPa 0,0 l/m 0 min 0 min 0 W/m 57,9 km/h (7 Bft) 97,83 %
31.12.2022 06:02 15,8 C 15,0 C 11,7 C 86 % 1004,8 hPa 0,0 l/m 0 min 0 min 0 W/m 51,5 km/h (7 Bft) 100,00 %
31.12.2022 06:04 15,9 C 15,0 C 11,7 C 86 % 1004,7 hPa 0,0 l/m 0 min 0 min 0 W/m 54,7 km/h (7 Bft) 95,74 %
31.12.2022 06:08 15,9 C 15,0 C 11,7 C 86 % 1004,6 hPa 0,0 l/m 0 min 0 min 0 W/m 48,3 km/h (6 Bft) 98,88 %
31.12.2022 06:10 15,9 C 15,0 C 11,7 C 86 % 1004,5 hPa 0,0 l/m 0 min 0 min 0 W/m 61,2 km/h (7 Bft) 100,00 %
31.12.2022 06:12 15,9 C 15,0 C 11,7 C 86 % 1004,7 hPa 0,0 l/m 0 min 0 min 0 W/m 64,4 km/h (8 Bft) 95,74 %
31.12.2022 06:14 16,0 C 15,0 C 11,7 C 86 % 1004,7 hPa 0,0 l/m 0 min 0 min 0 W/m 67,6 km/h (8 Bft) 95,74 %
31.12.2022 06:16 15,9 C 15,0 C 11,7 C 86 % 1004,7 hPa 0,0 l/m 0 min 0 min 0 W/m 32,2 km/h (5 Bft) 95,74 %
31.12.2022 06:18 15,9 C 15,0 C 11,7 C 86 % 1004,6 hPa 0,0 l/m 0 min 0 min 0 W/m 45,1 km/h (6 Bft) 97,87 %
31.12.2022 06:20 15,9 C 15,0 C 11,7 C 86 % 1004,7 hPa 0,0 l/m 0 min 0 min 0 W/m 61,2 km/h (7 Bft) 100,00 %
31.12.2022 06:22 15,9 C 15,0 C 11,7 C 86 % 1004,8 hPa 0,0 l/m 0 min 0 min 0 W/m 41,8 km/h (6 Bft) 100,00 %
31.12.2022 06:24 16,0 C 15,0 C 11,7 C 86 % 1004,8 hPa 0,0 l/m 0 min 0 min 0 W/m 61,2 km/h (7 Bft) 95,74 %
31.12.2022 06:26 16,0 C 15,0 C 11,7 C 86 % 1004,8 hPa 0,0 l/m 0 min 0 min 0 W/m 51,5 km/h (7 Bft) 97,87 %
31.12.2022 06:28 16,1 C 15,0 C 11,7 C 85 % 1004,9 hPa 0,0 l/m 0 min 0 min 0 W/m 64,4 km/h (8 Bft) 97,87 %
31.12.2022 06:30 16,1 C 15,0 C 11,7 C 85 % 1004,9 hPa 0,0 l/m 0 min 0 min 0 W/m 32,2 km/h (5 Bft) 93,62 %
31.12.2022 06:32 16,1 C 15,0 C 11,7 C 85 % 1004,8 hPa 0,0 l/m 0 min 0 min 0 W/m 41,8 km/h (6 Bft) 97,87 %
31.12.2022 06:34 16,1 C 15,0 C 11,7 C 85 % 1004,9 hPa 0,0 l/m 0 min 0 min 0 W/m 54,7 km/h (7 Bft) 95,74 %
31.12.2022 06:36 16,1 C 15,0 C 11,7 C 85 % 1004,9 hPa 0,0 l/m 0 min 0 min 0 W/m 41,8 km/h (6 Bft) 95,65 %
31.12.2022 06:38 16,1 C 15,0 C 11,7 C 85 % 1005,1 hPa 0,0 l/m 0 min 0 min 0 W/m 48,3 km/h (6 Bft) 97,87 %
31.12.2022 06:40 16,1 C 15,0 C 11,7 C 85 % 1005,5 hPa 0,0 l/m 0 min 0 min 0 W/m 38,6 km/h (5 Bft) 97,87 %
31.12.2022 06:42 16,1 C 15,0 C 11,7 C 85 % 1005,1 hPa 0,0 l/m 0 min 0 min 0 W/m 45,1 km/h (6 Bft) 95,74 %
31.12.2022 06:44 16,1 C 15,6 C 11,7 C 85 % 1005,1 hPa 0,0 l/m 0 min 0 min 0 W/m 61,2 km/h (7 Bft) 95,74 %
31.12.2022 06:46 16,1 C 15,0 C 11,7 C 85 % 1005,4 hPa 0,0 l/m 0 min 0 min 0 W/m 41,8 km/h (6 Bft) 95,92 %
31.12.2022 06:48 16,1 C 15,0 C 11,7 C 85 % 1005,0 hPa 0,0 l/m 0 min 0 min 0 W/m 64,4 km/h (8 Bft) 93,62 %
31.12.2022 06:50 16,2 C 15,6 C 11,7 C 85 % 1005,0 hPa 0,0 l/m 0 min 0 min 0 W/m 48,3 km/h (6 Bft) 93,88 %
31.12.2022 06:52 16,2 C 15,0 C 11,7 C 85 % 1005,0 hPa 0,0 l/m 0 min 0 min 0 W/m 38,6 km/h (5 Bft) 93,48 %
31.12.2022 06:54 16,2 C 15,0 C 11,7 C 85 % 1005,2 hPa 0,0 l/m 0 min 0 min 0 W/m 45,1 km/h (6 Bft) 93,62 %
31.12.2022 06:56 16,1 C 15,0 C 11,7 C 85 % 1005,0 hPa 0,0 l/m 0 min 0 min 0 W/m 29,0 km/h (5 Bft) 97,87 %
31.12.2022 06:58 16,1 C 15,0 C 11,7 C 85 % 1005,1 hPa 0,0 l/m 0 min 0 min 0 W/m 38,6 km/h (5 Bft) 97,87 %
31.12.2022 07:00 16,1 C 15,0 C 11,7 C 85 % 1005,1 hPa 0,0 l/m 0 min 0 min 0 W/m 57,9 km/h (7 Bft) 93,62 %
31.12.2022 07:02 16,2 C 15,0 C 11,7 C 85 % 1005,1 hPa 0,0 l/m 0 min 0 min 0 W/m 54,7 km/h (7 Bft) 97,87 %
31.12.2022 07:04 16,1 C 15,0 C 11,7 C 85 % 1005,1 hPa 0,0 l/m 0 min 0 min 0 W/m 32,2 km/h (5 Bft) 97,83 %
31.12.2022 07:06 16,1 C 15,0 C 11,7 C 85 % 1005,2 hPa 0,0 l/m 0 min 0 min 0 W/m 38,6 km/h (5 Bft) 95,74 %
31.12.2022 07:08 16,1 C 15,0 C 11,7 C 85 % 1005,2 hPa 0,0 l/m 0 min 0 min 0 W/m 41,8 km/h (6 Bft) 95,74 %
31.12.2022 07:10 16,1 C 15,0 C 11,7 C 85 % 1005,2 hPa 0,0 l/m 0 min 0 min 0 W/m 29,0 km/h (5 Bft) 97,87 %
31.12.2022 07:12 16,1 C 15,6 C 11,7 C 85 % 1005,1 hPa 0,0 l/m 0 min 0 min 0 W/m 48,3 km/h (6 Bft) 95,74 %
31.12.2022 07:14 16,2 C 15,6 C 11,7 C 85 % 1005,2 hPa 0,0 l/m 0 min 0 min 0 W/m 38,6 km/h (5 Bft) 97,87 %
31.12.2022 07:16 16,2 C 15,0 C 11,7 C 85 % 1005,2 hPa 0,0 l/m 0 min 0 min 0 W/m 29,0 km/h (5 Bft) 97,83 %
31.12.2022 07:18 16,2 C 15,6 C 11,7 C 85 % 1005,2 hPa 0,0 l/m 0 min 0 min 0 W/m 41,8 km/h (6 Bft) 95,74 %
31.12.2022 07:20 16,2 C 15,0 C 11,7 C 85 % 1005,2 hPa 0,0 l/m 0 min 0 min 0 W/m 29,0 km/h (5 Bft) 97,87 %
31.12.2022 07:22 16,2 C 15,0 C 11,7 C 85 % 1005,3 hPa 0,0 l/m 0 min 0 min 0 W/m 29,0 km/h (5 Bft) 95,74 %
31.12.2022 07:24 16,1 C 15,0 C 11,7 C 85 % 1005,4 hPa 0,0 l/m 0 min 0 min 0 W/m 25,7 km/h (4 Bft) 95,74 %
31.12.2022 07:26 16,1 C 15,0 C 11,7 C 85 % 1005,3 hPa 0,0 l/m 0 min 0 min 0 W/m 35,4 km/h (5 Bft) 95,74 %
31.12.2022 07:28 16,2 C 15,6 C 11,7 C 85 % 1005,4 hPa 0,0 l/m 0 min 0 min 0 W/m 35,4 km/h (5 Bft) 97,87 %
31.12.2022 07:30 16,2 C 15,6 C 11,7 C 85 % 1005,4 hPa 0,0 l/m 0 min 0 min 0 W/m 38,6 km/h (5 Bft) 97,83 %
31.12.2022 07:32 16,3 C 15,6 C 11,7 C 84 % 1005,5 hPa 0,0 l/m 0 min 0 min 0 W/m 41,8 km/h (6 Bft) 97,87 %
31.12.2022 07:34 16,3 C 15,6 C 11,7 C 84 % 1005,4 hPa 0,0 l/m 0 min 0 min 0 W/m 54,7 km/h (7 Bft) 100,00 %
31.12.2022 07:36 16,3 C 15,6 C 11,7 C 84 % 1005,5 hPa 0,0 l/m 0 min 0 min 0 W/m 48,3 km/h (6 Bft) 93,62 %
31.12.2022 07:38 16,3 C 15,6 C 11,7 C 84 % 1005,6 hPa 0,0 l/m 0 min 0 min 0 W/m 41,8 km/h (6 Bft) 97,87 %
31.12.2022 07:40 16,3 C 15,6 C 11,7 C 84 % 1005,6 hPa 0,0 l/m 0 min 0 min 0 W/m 54,7 km/h (7 Bft) 100,00 %
31.12.2022 07:42 16,3 C 15,6 C 11,7 C 84 % 1005,7 hPa 0,0 l/m 0 min 0 min 0 W/m 41,8 km/h (6 Bft) 97,83 %
31.12.2022 07:44 16,4 C 15,6 C 11,7 C 84 % 1005,8 hPa 0,0 l/m 0 min 0 min 0 W/m 70,8 km/h (8 Bft) 100,00 %
31.12.2022 07:46 16,4 C 15,6 C 11,7 C 84 % 1005,7 hPa 0,0 l/m 0 min 0 min 0 W/m 67,6 km/h (8 Bft) 97,87 %
31.12.2022 07:48 16,4 C 15,6 C 11,7 C 84 % 1005,6 hPa 0,0 l/m 0 min 0 min 0 W/m 54,7 km/h (7 Bft) 97,87 %
31.12.2022 07:50 16,4 C 15,6 C 11,7 C 84 % 1005,7 hPa 0,0 l/m 0 min 0 min 0 W/m 38,6 km/h (5 Bft) 95,74 %
31.12.2022 07:52 16,4 C 15,6 C 11,7 C 84 % 1005,8 hPa 0,0 l/m 0 min 0 min 0 W/m 45,1 km/h (6 Bft) 93,62 %
31.12.2022 07:54 16,4 C 15,6 C 11,7 C 84 % 1005,8 hPa 0,0 l/m 0 min 0 min 0 W/m 35,4 km/h (5 Bft) 93,62 %
31.12.2022 07:56 16,3 C 15,6 C 11,7 C 84 % 1005,8 hPa 0,0 l/m 0 min 0 min 0 W/m 54,7 km/h (7 Bft) 97,83 %
31.12.2022 07:58 16,3 C 15,6 C 11,7 C 84 % 1005,8 hPa 0,0 l/m 0 min 0 min 0 W/m 45,1 km/h (6 Bft) 97,87 %
31.12.2022 08:00 16,4 C 15,6 C 11,7 C 84 % 1005,9 hPa 0,0 l/m 0 min 0 min 0 W/m 57,9 km/h (7 Bft) 97,87 %
31.12.2022 08:02 16,4 C 15,6 C 11,7 C 84 % 1005,9 hPa 0,0 l/m 0 min 0 min 0 W/m 38,6 km/h (5 Bft) 95,74 %
31.12.2022 08:04 16,4 C 15,6 C 11,7 C 84 % 1005,8 hPa 0,0 l/m 0 min 0 min 0 W/m 54,7 km/h (7 Bft) 95,74 %
31.12.2022 08:06 16,4 C 15,6 C 11,7 C 84 % 1005,8 hPa 0,0 l/m 0 min 0 min 0 W/m 45,1 km/h (6 Bft) 97,87 %
31.12.2022 08:08 16,4 C 15,6 C 11,7 C 84 % 1006,1 hPa 0,0 l/m 0 min 0 min 0 W/m 64,4 km/h (8 Bft) 97,87 %
31.12.2022 08:10 16,4 C 15,6 C 11,7 C 84 % 1006,0 hPa 0,0 l/m 0 min 0 min 0 W/m 35,4 km/h (5 Bft) 97,83 %
31.12.2022 08:12 16,4 C 15,6 C 11,7 C 84 % 1005,9 hPa 0,0 l/m 0 min 0 min 0 W/m 45,1 km/h (6 Bft) 97,87 %
31.12.2022 08:14 16,4 C 15,6 C 11,7 C 84 % 1006,0 hPa 0,0 l/m 0 min 0 min 0 W/m 41,8 km/h (6 Bft) 97,87 %
31.12.2022 08:16 16,4 C 15,6 C 11,7 C 84 % 1006,1 hPa 0,0 l/m 0 min 0 min 0 W/m 57,9 km/h (7 Bft) 97,87 %
31.12.2022 08:18 16,4 C 15,6 C 11,7 C 84 % 1006,1 hPa 0,0 l/m 0 min 0 min 0 W/m 57,9 km/h (7 Bft) 97,87 %
31.12.2022 08:20 16,4 C 15,6 C 11,7 C 84 % 1006,1 hPa 0,0 l/m 0 min 0 min 0 W/m 32,2 km/h (5 Bft) 95,74 %
31.12.2022 08:22 16,3 C 15,6 C 11,7 C 85 % 1006,0 hPa 0,0 l/m 0 min 0 min 0 W/m 32,2 km/h (5 Bft) 97,83 %
31.12.2022 08:24 16,3 C 15,0 C 11,7 C 85 % 1006,0 hPa 0,0 l/m 0 min 0 min 0 W/m 25,7 km/h (4 Bft) 97,87 %
31.12.2022 08:26 16,2 C 15,0 C 11,7 C 85 % 1006,1 hPa 0,0 l/m 0 min 0 min 0 W/m 41,8 km/h (6 Bft) 95,74 %
31.12.2022 08:28 16,2 C 15,0 C 11,7 C 85 % 1006,3 hPa 0,0 l/m 0 min 0 min 0 W/m 77,2 km/h (9 Bft) 97,87 %
31.12.2022 08:30 16,2 C 15,6 C 11,7 C 85 % 1006,2 hPa 0,0 l/m 0 min 0 min 0 W/m 35,4 km/h (5 Bft) 97,87 %
31.12.2022 08:32 16,2 C 15,6 C 11,7 C 85 % 1006,1 hPa 0,0 l/m 0 min 0 min 0 W/m 48,3 km/h (6 Bft) 87,23 %
31.12.2022 08:34 16,2 C 15,6 C 11,7 C 85 % 1006,1 hPa 0,0 l/m 0 min 0 min 0 W/m 38,6 km/h (5 Bft) 85,11 %
31.12.2022 08:36 16,2 C 15,6 C 11,7 C 85 % 1006,2 hPa 0,0 l/m 0 min 0 min 0 W/m 38,6 km/h (5 Bft) 97,83 %
31.12.2022 08:38 16,3 C 15,6 C 11,7 C 85 % 1006,2 hPa 0,0 l/m 0 min 0 min 0 W/m 38,6 km/h (5 Bft) 89,36 %
31.12.2022 08:40 16,3 C 15,6 C 11,7 C 85 % 1006,2 hPa 0,0 l/m 0 min 0 min 0 W/m 45,1 km/h (6 Bft) 87,23 %
31.12.2022 08:42 16,3 C 15,6 C 11,7 C 85 % 1006,1 hPa 0,0 l/m 0 min 0 min 0 W/m 41,8 km/h (6 Bft) 93,62 %
31.12.2022 08:44 16,3 C 15,6 C 11,7 C 84 % 1006,1 hPa 0,0 l/m 0 min 0 min 0 W/m 32,2 km/h (5 Bft) 97,87 %
31.12.2022 08:46 16,3 C 15,6 C 11,7 C 84 % 1006,2 hPa 0,0 l/m 0 min 0 min 0 W/m 45,1 km/h (6 Bft) 91,49 %
31.12.2022 08:48 16,3 C 15,6 C 11,7 C 84 % 1006,3 hPa 0,0 l/m 0 min 0 min 0 W/m 54,7 km/h (7 Bft) 97,14 %
31.12.2022 08:50 16,4 C 15,6 C 11,7 C 84 % 1006,5 hPa 0,0 l/m 0 min 0 min 0 W/m 41,8 km/h (6 Bft) 96,49 %
31.12.2022 08:52 16,4 C 15,6 C 11,7 C 84 % 1006,5 hPa 0,0 l/m 0 min 0 min 1 W/m 32,2 km/h (5 Bft) 97,87 %
31.12.2022 08:54 16,4 C 15,6 C 11,7 C 84 % 1006,4 hPa 0,0 l/m 0 min 0 min 5 W/m 32,2 km/h (5 Bft) 95,83 %
31.12.2022 08:56 16,4 C 15,6 C 11,7 C 84 % 1006,3 hPa 0,0 l/m 0 min 0 min 5 W/m 48,3 km/h (6 Bft) 97,14 %
31.12.2022 08:58 16,4 C 15,6 C 11,7 C 84 % 1006,6 hPa 0,0 l/m 0 min 0 min 3 W/m 48,3 km/h (6 Bft) 98,31 %
31.12.2022 09:00 16,5 C 15,6 C 11,7 C 83 % 1006,6 hPa 0,0 l/m 0 min 0 min 6 W/m 41,8 km/h (6 Bft) 100,00 %
31.12.2022 09:02 16,6 C 15,6 C 11,7 C 83 % 1006,4 hPa 0,0 l/m 0 min 0 min 7 W/m 29,0 km/h (5 Bft) 100,00 %
31.12.2022 09:04 16,6 C 15,6 C 11,7 C 83 % 1006,5 hPa 0,0 l/m 0 min 0 min 8 W/m 48,3 km/h (6 Bft) 100,00 %
31.12.2022 09:06 16,6 C 15,6 C 11,7 C 83 % 1006,3 hPa 0,0 l/m 0 min 0 min 11 W/m 32,2 km/h (5 Bft) 100,00 %
31.12.2022 09:08 16,6 C 15,6 C 11,7 C 83 % 1006,4 hPa 0,0 l/m 0 min 0 min 11 W/m 48,3 km/h (6 Bft) 100,00 %
31.12.2022 09:10 16,6 C 15,6 C 11,7 C 83 % 1006,4 hPa 0,0 l/m 0 min 0 min 11 W/m 41,8 km/h (6 Bft) 100,00 %
31.12.2022 09:12 16,6 C 15,6 C 11,7 C 83 % 1006,5 hPa 0,0 l/m 0 min 0 min 12 W/m 41,8 km/h (6 Bft) 100,00 %
31.12.2022 09:14 16,6 C 15,6 C 11,7 C 83 % 1006,5 hPa 0,0 l/m 0 min 0 min 12 W/m 41,8 km/h (6 Bft) 97,83 %
31.12.2022 09:16 16,7 C 15,6 C 11,7 C 82 % 1006,6 hPa 0,0 l/m 0 min 0 min 12 W/m 38,6 km/h (5 Bft) 97,87 %
31.12.2022 09:18 16,7 C 16,1 C 12,2 C 82 % 1006,6 hPa 0,0 l/m 0 min 0 min 11 W/m 41,8 km/h (6 Bft) 100,00 %
31.12.2022 09:20 16,7 C 16,1 C 12,2 C 82 % 1006,5 hPa 0,0 l/m 0 min 0 min 14 W/m 45,1 km/h (6 Bft) 100,00 %
31.12.2022 09:22 16,7 C 16,1 C 12,2 C 82 % 1006,5 hPa 0,0 l/m 0 min 0 min 22 W/m 51,5 km/h (7 Bft) 100,00 %
31.12.2022 09:24 16,7 C 16,1 C 12,2 C 82 % 1006,7 hPa 0,0 l/m 0 min 0 min 20 W/m 41,8 km/h (6 Bft) 100,00 %
31.12.2022 09:26 16,7 C 16,1 C 12,2 C 82 % 1006,7 hPa 0,0 l/m 0 min 0 min 18 W/m 32,2 km/h (5 Bft) 95,74 %
31.12.2022 09:28 16,7 C 16,1 C 12,2 C 82 % 1006,7 hPa 0,0 l/m 0 min 0 min 22 W/m 51,5 km/h (7 Bft) 97,83 %
31.12.2022 09:30 16,7 C 16,1 C 12,2 C 82 % 1006,6 hPa 0,0 l/m 0 min 0 min 25 W/m 41,8 km/h (6 Bft) 97,87 %
31.12.2022 09:32 16,7 C 16,1 C 12,2 C 82 % 1006,6 hPa 0,0 l/m 0 min 0 min 30 W/m 57,9 km/h (7 Bft) 97,87 %
31.12.2022 09:34 16,7 C 16,1 C 12,2 C 82 % 1006,6 hPa 0,0 l/m 0 min 0 min 38 W/m 32,2 km/h (5 Bft) 97,87 %
31.12.2022 09:36 16,7 C 16,1 C 12,2 C 82 % 1006,6 hPa 0,0 l/m 0 min 0 min 42 W/m 45,1 km/h (6 Bft) 97,87 %
31.12.2022 09:38 16,7 C 16,1 C 12,2 C 82 % 1006,7 hPa 0,0 l/m 0 min 0 min 40 W/m 35,4 km/h (5 Bft) 97,87 %
31.12.2022 09:40 16,7 C 16,1 C 12,2 C 82 % 1006,8 hPa 0,0 l/m 0 min 0 min 30 W/m 32,2 km/h (5 Bft) 97,83 %
31.12.2022 09:42 16,7 C 16,1 C 12,2 C 82 % 1006,8 hPa 0,0 l/m 0 min 0 min 23 W/m 32,2 km/h (5 Bft) 93,62 %
31.12.2022 09:44 16,7 C 16,1 C 11,7 C 82 % 1006,9 hPa 0,0 l/m 0 min 0 min 24 W/m 25,7 km/h (4 Bft) 95,74 %
31.12.2022 09:46 16,7 C 16,1 C 12,2 C 82 % 1007,1 hPa 0,0 l/m 0 min 0 min 25 W/m 41,8 km/h (6 Bft) 95,74 %
31.12.2022 09:48 16,7 C 16,1 C 12,2 C 82 % 1007,0 hPa 0,0 l/m 0 min 0 min 28 W/m 22,5 km/h (4 Bft) 97,87 %
31.12.2022 09:50 16,7 C 16,1 C 11,7 C 82 % 1007,0 hPa 0,0 l/m 0 min 0 min 33 W/m 38,6 km/h (5 Bft) 97,87 %
31.12.2022 09:52 16,7 C 16,1 C 12,2 C 82 % 1006,9 hPa 0,0 l/m 0 min 0 min 31 W/m 35,4 km/h (5 Bft) 97,83 %
31.12.2022 09:54 16,7 C 16,1 C 12,2 C 82 % 1007,0 hPa 0,0 l/m 0 min 0 min 38 W/m 35,4 km/h (5 Bft) 87,23 %
31.12.2022 09:56 16,7 C 16,1 C 12,2 C 82 % 1007,0 hPa 0,0 l/m 0 min 0 min 43 W/m 35,4 km/h (5 Bft) 97,87 %
31.12.2022 09:58 16,7 C 16,1 C 11,7 C 82 % 1007,1 hPa 0,0 l/m 0 min 0 min 36 W/m 35,4 km/h (5 Bft) 95,74 %
31.12.2022 10:00 16,7 C 16,1 C 12,2 C 82 % 1007,2 hPa 0,0 l/m 0 min 0 min 30 W/m 57,9 km/h (7 Bft) 93,62 %
31.12.2022 10:02 16,8 C 16,1 C 12,2 C 82 % 1007,2 hPa 0,0 l/m 0 min 0 min 29 W/m 45,1 km/h (6 Bft) 89,36 %
31.12.2022 10:04 16,8 C 16,1 C 12,2 C 82 % 1007,3 hPa 0,0 l/m 0 min 0 min 33 W/m 35,4 km/h (5 Bft) 93,62 %
31.12.2022 10:06 16,8 C 16,1 C 12,2 C 82 % 1007,2 hPa 0,0 l/m 0 min 0 min 39 W/m 61,2 km/h (7 Bft) 93,48 %
31.12.2022 10:08 16,8 C 16,1 C 12,2 C 82 % 1007,4 hPa 0,0 l/m 0 min 0 min 33 W/m 41,8 km/h (6 Bft) 95,74 %
31.12.2022 10:10 16,8 C 16,1 C 12,2 C 82 % 1007,4 hPa 0,0 l/m 0 min 0 min 25 W/m 32,2 km/h (5 Bft) 97,14 %
31.12.2022 10:12 16,8 C 16,1 C 12,2 C 82 % 1007,5 hPa 0,0 l/m 0 min 0 min 27 W/m 32,2 km/h (5 Bft) 94,64 %
31.12.2022 10:14 16,8 C 16,1 C 12,2 C 82 % 1007,6 hPa 0,0 l/m 0 min 0 min 33 W/m 32,2 km/h (5 Bft) 95,74 %
31.12.2022 10:16 16,8 C 16,1 C 12,2 C 82 % 1007,5 hPa 0,0 l/m 0 min 0 min 36 W/m 32,2 km/h (5 Bft) 100,00 %
31.12.2022 10:18 16,8 C 16,1 C 12,2 C 82 % 1007,5 hPa 0,0 l/m 0 min 0 min 34 W/m 38,6 km/h (5 Bft) 97,87 %
31.12.2022 10:20 16,9 C 16,1 C 12,2 C 82 % 1007,7 hPa 0,0 l/m 0 min 0 min 24 W/m 41,8 km/h (6 Bft) 93,62 %
31.12.2022 10:22 16,9 C 16,1 C 12,2 C 82 % 1007,8 hPa 0,0 l/m 0 min 0 min 24 W/m 32,2 km/h (5 Bft) 100,00 %
31.12.2022 10:24 16,9 C 16,1 C 12,2 C 82 % 1007,8 hPa 0,0 l/m 0 min 0 min 27 W/m 35,4 km/h (5 Bft) 97,87 %
31.12.2022 10:26 16,9 C 16,1 C 12,2 C 82 % 1007,7 hPa 0,0 l/m 0 min 0 min 22 W/m 45,1 km/h (6 Bft) 95,74 %
31.12.2022 10:28 16,9 C 16,1 C 12,2 C 82 % 1007,8 hPa 0,0 l/m 0 min 0 min 18 W/m 61,2 km/h (7 Bft) 93,62 %
31.12.2022 10:30 16,9 C 16,1 C 12,2 C 82 % 1008,0 hPa 0,0 l/m 0 min 0 min 24 W/m 35,4 km/h (5 Bft) 89,13 %
31.12.2022 10:32 16,9 C 16,1 C 12,2 C 82 % 1007,9 hPa 0,0 l/m 0 min 0 min 31 W/m 38,6 km/h (5 Bft) 95,74 %
31.12.2022 10:34 16,9 C 16,1 C 12,2 C 82 % 1007,9 hPa 0,0 l/m 0 min 0 min 40 W/m 32,2 km/h (5 Bft) 95,74 %
31.12.2022 10:36 16,9 C 16,1 C 12,2 C 82 % 1007,9 hPa 0,0 l/m 0 min 0 min 42 W/m 41,8 km/h (6 Bft) 91,49 %
31.12.2022 10:38 16,9 C 16,1 C 12,2 C 82 % 1008,1 hPa 0,0 l/m 0 min 0 min 35 W/m 38,6 km/h (5 Bft) 97,87 %
31.12.2022 10:40 17,0 C 16,1 C 12,2 C 81 % 1008,0 hPa 0,0 l/m 0 min 0 min 33 W/m 48,3 km/h (6 Bft) 93,62 %
31.12.2022 10:42 17,0 C 16,1 C 12,2 C 81 % 1008,1 hPa 0,0 l/m 0 min 0 min 50 W/m 54,7 km/h (7 Bft) 93,48 %
31.12.2022 10:44 17,0 C 16,1 C 12,2 C 81 % 1008,0 hPa 0,0 l/m 0 min 0 min 61 W/m 25,7 km/h (4 Bft) 95,74 %
31.12.2022 10:46 17,0 C 16,1 C 12,2 C 81 % 1008,1 hPa 0,0 l/m 0 min 0 min 57 W/m 29,0 km/h (5 Bft) 95,74 %
31.12.2022 10:48 17,1 C 16,1 C 12,2 C 81 % 1008,2 hPa 0,0 l/m 0 min 0 min 55 W/m 51,5 km/h (7 Bft) 95,74 %
31.12.2022 10:50 17,1 C 16,1 C 12,2 C 81 % 1008,2 hPa 0,0 l/m 0 min 0 min 50 W/m 35,4 km/h (5 Bft) 95,74 %
31.12.2022 10:52 17,1 C 16,1 C 12,2 C 81 % 1008,2 hPa 0,0 l/m 0 min 0 min 54 W/m 41,8 km/h (6 Bft) 95,74 %
31.12.2022 10:54 17,1 C 16,7 C 12,2 C 81 % 1008,1 hPa 0,0 l/m 0 min 0 min 63 W/m 38,6 km/h (5 Bft) 95,74 %
31.12.2022 10:56 17,2 C 16,7 C 12,2 C 81 % 1008,3 hPa 0,0 l/m 0 min 0 min 69 W/m 45,1 km/h (6 Bft) 95,65 %
31.12.2022 10:58 17,2 C 16,7 C 12,2 C 81 % 1008,3 hPa 0,0 l/m 0 min 0 min 74 W/m 35,4 km/h (5 Bft) 95,74 %
31.12.2022 11:00 17,2 C 16,7 C 12,8 C 81 % 1008,4 hPa 0,0 l/m 0 min 0 min 70 W/m 48,3 km/h (6 Bft) 97,87 %
31.12.2022 11:06 17,3 C 16,7 C 12,8 C 80 % 1008,3 hPa 0,0 l/m 0 min 0 min 67 W/m 38,6 km/h (5 Bft) 100,00 %
31.12.2022 11:08 17,4 C 16,7 C 12,8 C 80 % 1008,4 hPa 0,0 l/m 0 min 0 min 70 W/m 38,6 km/h (5 Bft) 100,00 %
31.12.2022 11:10 17,4 C 16,7 C 12,8 C 80 % 1008,3 hPa 0,0 l/m 0 min 0 min 82 W/m 32,2 km/h (5 Bft) 97,87 %
31.12.2022 11:12 17,4 C 16,7 C 12,8 C 79 % 1008,5 hPa 0,0 l/m 0 min 0 min 97 W/m 41,8 km/h (6 Bft) 100,00 %
31.12.2022 11:14 17,4 C 16,7 C 12,8 C 79 % 1008,5 hPa 0,0 l/m 0 min 0 min 93 W/m 29,0 km/h (5 Bft) 100,00 %
31.12.2022 11:16 17,4 C 16,7 C 12,8 C 79 % 1008,4 hPa 0,0 l/m 0 min 0 min 88 W/m 38,6 km/h (5 Bft) 97,87 %
31.12.2022 11:18 17,4 C 16,7 C 12,8 C 79 % 1008,6 hPa 0,0 l/m 0 min 0 min 73 W/m 41,8 km/h (6 Bft) 100,00 %
31.12.2022 11:20 17,4 C 16,7 C 12,8 C 79 % 1008,6 hPa 0,0 l/m 0 min 0 min 75 W/m 38,6 km/h (5 Bft) 100,00 %
31.12.2022 11:22 17,4 C 16,7 C 12,8 C 79 % 1008,5 hPa 0,0 l/m 0 min 0 min 63 W/m 45,1 km/h (6 Bft) 100,00 %
31.12.2022 11:24 17,5 C 16,7 C 12,8 C 79 % 1008,5 hPa 0,0 l/m 0 min 0 min 64 W/m 29,0 km/h (5 Bft) 100,00 %
31.12.2022 11:26 17,5 C 16,7 C 12,8 C 79 % 1008,6 hPa 0,0 l/m 0 min 0 min 60 W/m 48,3 km/h (6 Bft) 100,00 %
31.12.2022 11:28 17,5 C 16,7 C 12,8 C 79 % 1008,6 hPa 0,0 l/m 0 min 0 min 53 W/m 74,0 km/h (8 Bft) 100,00 %
31.12.2022 11:30 17,5 C 16,7 C 12,8 C 79 % 1008,5 hPa 0,0 l/m 0 min 0 min 50 W/m 41,8 km/h (6 Bft) 97,87 %
31.12.2022 11:32 17,5 C 16,7 C 12,8 C 79 % 1008,7 hPa 0,0 l/m 0 min 0 min 48 W/m 57,9 km/h (7 Bft) 100,00 %
31.12.2022 11:34 17,5 C 16,7 C 12,8 C 79 % 1008,7 hPa 0,0 l/m 0 min 0 min 43 W/m 29,0 km/h (5 Bft) 97,87 %
31.12.2022 11:36 17,5 C 16,7 C 12,8 C 79 % 1008,6 hPa 0,0 l/m 0 min 0 min 47 W/m 29,0 km/h (5 Bft) 100,00 %
31.12.2022 11:38 17,4 C 16,7 C 12,8 C 79 % 1008,6 hPa 0,0 l/m 0 min 0 min 60 W/m 32,2 km/h (5 Bft) 97,87 %
31.12.2022 11:40 17,4 C 16,7 C 12,8 C 79 % 1008,5 hPa 0,0 l/m 0 min 0 min 66 W/m 32,2 km/h (5 Bft) 97,83 %
31.12.2022 11:42 17,4 C 16,7 C 12,8 C 79 % 1008,5 hPa 0,0 l/m 0 min 0 min 72 W/m 51,5 km/h (7 Bft) 100,00 %
31.12.2022 11:44 17,4 C 16,7 C 12,8 C 79 % 1008,5 hPa 0,0 l/m 0 min 0 min 72 W/m 35,4 km/h (5 Bft) 100,00 %
31.12.2022 11:46 17,4 C 16,7 C 12,8 C 79 % 1008,5 hPa 0,0 l/m 0 min 0 min 82 W/m 54,7 km/h (7 Bft) 97,87 %
31.12.2022 11:48 17,4 C 16,7 C 12,8 C 80 % 1008,4 hPa 0,0 l/m 0 min 0 min 90 W/m 35,4 km/h (5 Bft) 100,00 %
31.12.2022 11:50 17,4 C 17,2 C 12,8 C 79 % 1008,5 hPa 0,0 l/m 0 min 0 min 108 W/m 51,5 km/h (7 Bft) 100,00 %
31.12.2022 11:52 17,5 C 17,2 C 12,8 C 79 % 1008,4 hPa 0,0 l/m 0 min 0 min 112 W/m 32,2 km/h (5 Bft) 97,83 %
31.12.2022 11:54 17,5 C 17,2 C 12,8 C 79 % 1008,3 hPa 0,0 l/m 0 min 0 min 115 W/m 41,8 km/h (6 Bft) 97,87 %
31.12.2022 11:56 17,6 C 17,2 C 12,8 C 79 % 1008,2 hPa 0,0 l/m 0 min 0 min 120 W/m 48,3 km/h (6 Bft) 97,87 %
31.12.2022 11:58 17,6 C 17,2 C 12,8 C 79 % 1008,3 hPa 0,0 l/m 0 min 0 min 126 W/m 45,1 km/h (6 Bft) 100,00 %
31.12.2022 12:00 17,6 C 17,2 C 12,8 C 79 % 1008,2 hPa 0,0 l/m 0 min 0 min 121 W/m 38,6 km/h (5 Bft) 100,00 %
31.12.2022 12:02 17,6 C 17,2 C 12,8 C 79 % 1008,3 hPa 0,0 l/m 0 min 0 min 127 W/m 35,4 km/h (5 Bft) 100,00 %
31.12.2022 12:04 17,6 C 17,2 C 12,8 C 79 % 1008,2 hPa 0,0 l/m 0 min 0 min 128 W/m 29,0 km/h (5 Bft) 95,74 %
31.12.2022 12:08 17,6 C 17,2 C 12,8 C 79 % 1008,3 hPa 0,0 l/m 0 min 0 min 126 W/m 45,1 km/h (6 Bft) 98,94 %
31.12.2022 12:10 17,6 C 17,2 C 12,8 C 79 % 1008,4 hPa 0,0 l/m 0 min 0 min 112 W/m 32,2 km/h (5 Bft) 97,87 %
31.12.2022 12:12 17,6 C 17,2 C 12,8 C 79 % 1008,5 hPa 0,0 l/m 0 min 0 min 83 W/m 35,4 km/h (5 Bft) 93,48 %
31.12.2022 12:14 17,6 C 17,2 C 12,8 C 79 % 1008,4 hPa 0,0 l/m 0 min 0 min 74 W/m 38,6 km/h (5 Bft) 95,74 %
31.12.2022 12:16 17,6 C 17,2 C 12,8 C 79 % 1008,4 hPa 0,0 l/m 0 min 0 min 82 W/m 35,4 km/h (5 Bft) 97,87 %
31.12.2022 12:18 17,6 C 16,7 C 12,8 C 79 % 1008,4 hPa 0,0 l/m 0 min 0 min 68 W/m 32,2 km/h (5 Bft) 97,87 %
31.12.2022 12:20 17,7 C 16,7 C 12,8 C 78 % 1008,4 hPa 0,0 l/m 0 min 0 min 56 W/m 45,1 km/h (6 Bft) 95,74 %
31.12.2022 12:22 17,6 C 16,7 C 12,8 C 78 % 1008,4 hPa 0,0 l/m 0 min 0 min 72 W/m 29,0 km/h (5 Bft) 93,62 %
31.12.2022 12:24 17,6 C 16,7 C 12,8 C 79 % 1008,4 hPa 0,0 l/m 0 min 0 min 63 W/m 32,2 km/h (5 Bft) 97,83 %
31.12.2022 12:26 17,6 C 16,7 C 12,8 C 79 % 1008,4 hPa 0,0 l/m 0 min 0 min 61 W/m 48,3 km/h (6 Bft) 93,75 %
31.12.2022 12:28 17,6 C 16,7 C 12,8 C 79 % 1008,3 hPa 0,0 l/m 0 min 0 min 49 W/m 38,6 km/h (5 Bft) 95,74 %
31.12.2022 12:30 17,6 C 16,7 C 12,8 C 79 % 1008,6 hPa 0,0 l/m 0 min 0 min 40 W/m 32,2 km/h (5 Bft) 95,83 %
31.12.2022 12:32 17,6 C 16,7 C 12,8 C 79 % 1008,4 hPa 0,0 l/m 0 min 0 min 31 W/m 38,6 km/h (5 Bft) 95,65 %
31.12.2022 12:34 17,6 C 16,7 C 12,8 C 79 % 1008,5 hPa 0,0 l/m 0 min 0 min 35 W/m 22,5 km/h (4 Bft) 95,74 %
31.12.2022 12:36 17,6 C 16,7 C 12,8 C 79 % 1008,3 hPa 0,0 l/m 0 min 0 min 35 W/m 48,3 km/h (6 Bft) 95,74 %
31.12.2022 12:38 17,5 C 16,7 C 12,8 C 79 % 1008,4 hPa 0,0 l/m 0 min 0 min 31 W/m 48,3 km/h (6 Bft) 93,62 %
31.12.2022 12:40 17,6 C 16,7 C 12,8 C 79 % 1008,4 hPa 0,0 l/m 0 min 0 min 30 W/m 35,4 km/h (5 Bft) 95,74 %
31.12.2022 12:42 17,6 C 16,7 C 12,8 C 79 % 1008,4 hPa 0,0 l/m 0 min 0 min 30 W/m 32,2 km/h (5 Bft) 95,74 %
31.12.2022 12:44 17,6 C 16,7 C 12,8 C 79 % 1008,4 hPa 0,0 l/m 0 min 0 min 28 W/m 32,2 km/h (5 Bft) 95,74 %
31.12.2022 12:46 17,6 C 16,7 C 12,8 C 79 % 1008,4 hPa 0,0 l/m 0 min 0 min 31 W/m 45,1 km/h (6 Bft) 95,74 %
31.12.2022 12:48 17,6 C 16,7 C 12,8 C 79 % 1008,5 hPa 0,0 l/m 0 min 0 min 27 W/m 25,7 km/h (4 Bft) 95,74 %
31.12.2022 12:50 17,6 C 16,7 C 12,8 C 78 % 1008,5 hPa 0,0 l/m 0 min 0 min 33 W/m 45,1 km/h (6 Bft) 95,65 %
31.12.2022 12:52 17,6 C 16,7 C 12,8 C 79 % 1008,4 hPa 0,0 l/m 0 min 0 min 34 W/m 32,2 km/h (5 Bft) 89,36 %
31.12.2022 12:54 17,5 C 16,7 C 12,8 C 78 % 1008,4 hPa 0,0 l/m 0 min 0 min 28 W/m 32,2 km/h (5 Bft) 93,62 %
31.12.2022 12:56 17,5 C 16,7 C 12,8 C 78 % 1008,4 hPa 0,0 l/m 0 min 0 min 33 W/m 35,4 km/h (5 Bft) 93,62 %
31.12.2022 12:58 17,6 C 16,7 C 12,8 C 78 % 1008,3 hPa 0,0 l/m 0 min 0 min 33 W/m 51,5 km/h (7 Bft) 100,00 %
31.12.2022 13:00 17,6 C 16,7 C 12,8 C 78 % 1008,4 hPa 0,0 l/m 0 min 0 min 26 W/m 51,5 km/h (7 Bft) 95,74 %
31.12.2022 13:02 17,6 C 16,7 C 12,8 C 78 % 1008,4 hPa 0,0 l/m 0 min 0 min 25 W/m 35,4 km/h (5 Bft) 95,74 %
31.12.2022 13:04 17,6 C 16,7 C 12,8 C 78 % 1008,6 hPa 0,0 l/m 0 min 0 min 25 W/m 41,8 km/h (6 Bft) 97,87 %
31.12.2022 13:06 17,6 C 16,7 C 12,8 C 78 % 1008,6 hPa 0,0 l/m 0 min 0 min 23 W/m 32,2 km/h (5 Bft) 100,00 %
31.12.2022 13:08 17,5 C 16,7 C 12,2 C 79 % 1008,6 hPa 0,0 l/m 0 min 0 min 21 W/m 25,7 km/h (4 Bft) 95,74 %
31.12.2022 13:10 17,4 C 16,7 C 12,2 C 79 % 1008,7 hPa 0,0 l/m 0 min 2 min 20 W/m 51,5 km/h (7 Bft) 97,83 %
31.12.2022 13:12 17,4 C 16,7 C 12,2 C 79 % 1008,7 hPa 0,0 l/m 0 min 0 min 18 W/m 25,7 km/h (4 Bft) 97,87 %
31.12.2022 13:14 17,4 C 16,7 C 12,2 C 79 % 1008,6 hPa 0,0 l/m 0 min 2 min 18 W/m 29,0 km/h (5 Bft) 95,74 %
31.12.2022 13:16 17,4 C 16,7 C 12,2 C 79 % 1008,5 hPa 0,0 l/m 0 min 2 min 25 W/m 35,4 km/h (5 Bft) 95,74 %
31.12.2022 13:18 17,4 C 16,1 C 12,2 C 79 % 1008,5 hPa 0,0 l/m 0 min 2 min 30 W/m 54,7 km/h (7 Bft) 97,87 %
31.12.2022 13:20 17,3 C 16,1 C 11,7 C 79 % 1008,6 hPa 0,0 l/m 0 min 2 min 33 W/m 29,0 km/h (5 Bft) 95,74 %
31.12.2022 13:22 17,3 C 15,0 C 11,1 C 80 % 1008,7 hPa 0,0 l/m 0 min 2 min 38 W/m 45,1 km/h (6 Bft) 95,74 %
31.12.2022 13:24 17,2 C 15,0 C 11,1 C 80 % 1008,5 hPa 0,0 l/m 0 min 2 min 35 W/m 48,3 km/h (6 Bft) 97,83 %
31.12.2022 13:26 17,2 C 15,6 C 11,1 C 81 % 1008,5 hPa 0,0 l/m 0 min 2 min 36 W/m 35,4 km/h (5 Bft) 97,87 %
31.12.2022 13:28 17,1 C 15,6 C 11,7 C 81 % 1008,6 hPa 0,0 l/m 0 min 2 min 36 W/m 29,0 km/h (5 Bft) 97,87 %
31.12.2022 13:30 17,1 C 15,6 C 11,7 C 81 % 1008,6 hPa 0,0 l/m 0 min 2 min 34 W/m 32,2 km/h (5 Bft) 95,74 %
31.12.2022 13:32 17,0 C 16,1 C 11,7 C 81 % 1008,5 hPa 0,0 l/m 0 min 2 min 44 W/m 45,1 km/h (6 Bft) 95,74 %
31.12.2022 13:34 17,0 C 16,1 C 11,7 C 81 % 1008,4 hPa 0,0 l/m 0 min 2 min 52 W/m 29,0 km/h (5 Bft) 97,87 %
31.12.2022 13:36 17,0 C 16,1 C 11,7 C 81 % 1008,5 hPa 0,0 l/m 0 min 0 min 46 W/m 35,4 km/h (5 Bft) 98,00 %
31.12.2022 13:38 17,0 C 16,1 C 12,2 C 81 % 1008,5 hPa 0,0 l/m 0 min 0 min 39 W/m 32,2 km/h (5 Bft) 97,87 %
31.12.2022 13:40 17,0 C 16,1 C 12,2 C 81 % 1008,4 hPa 0,0 l/m 0 min 0 min 43 W/m 41,8 km/h (6 Bft) 97,14 %
31.12.2022 13:42 17,1 C 16,1 C 12,2 C 81 % 1008,4 hPa 0,0 l/m 0 min 0 min 48 W/m 38,6 km/h (5 Bft) 97,87 %
31.12.2022 13:44 17,1 C 16,1 C 12,2 C 80 % 1008,5 hPa 0,0 l/m 0 min 0 min 46 W/m 45,1 km/h (6 Bft) 98,21 %
31.12.2022 13:46 17,1 C 16,7 C 12,2 C 80 % 1008,6 hPa 0,0 l/m 0 min 0 min 44 W/m 54,7 km/h (7 Bft) 97,87 %
31.12.2022 13:48 17,1 C 16,7 C 12,2 C 80 % 1008,6 hPa 0,0 l/m 0 min 0 min 54 W/m 45,1 km/h (6 Bft) 97,87 %
31.12.2022 13:50 17,2 C 16,7 C 12,2 C 80 % 1008,6 hPa 0,0 l/m 0 min 0 min 56 W/m 45,1 km/h (6 Bft) 97,87 %
31.12.2022 13:52 17,2 C 16,7 C 12,2 C 80 % 1008,6 hPa 0,0 l/m 0 min 0 min 61 W/m 41,8 km/h (6 Bft) 97,83 %
31.12.2022 13:54 17,2 C 16,7 C 12,2 C 79 % 1008,5 hPa 0,0 l/m 0 min 0 min 64 W/m 64,4 km/h (8 Bft) 95,74 %
31.12.2022 13:57 17,2 C 16,7 C 12,2 C 79 % 1008,6 hPa 0,0 l/m 0 min 0 min 61 W/m 45,1 km/h (6 Bft) 98,59 %
31.12.2022 13:58 17,2 C 16,7 C 12,2 C 79 % 1008,6 hPa 0,0 l/m 0 min 0 min 45 W/m 22,5 km/h (4 Bft) 95,65 %
31.12.2022 14:00 17,2 C 16,7 C 12,2 C 79 % 1008,7 hPa 0,0 l/m 0 min 0 min 47 W/m 51,5 km/h (7 Bft) 100,00 %
31.12.2022 14:02 17,2 C 16,7 C 12,2 C 79 % 1008,6 hPa 0,0 l/m 0 min 0 min 38 W/m 61,2 km/h (7 Bft) 96,00 %
31.12.2022 14:04 17,3 C 16,7 C 12,2 C 79 % 1008,7 hPa 0,0 l/m 0 min 0 min 31 W/m 29,0 km/h (5 Bft) 100,00 %
31.12.2022 14:06 17,2 C 16,1 C 12,2 C 79 % 1008,7 hPa 0,0 l/m 0 min 0 min 25 W/m 25,7 km/h (4 Bft) 100,00 %
31.12.2022 14:08 17,2 C 16,1 C 12,2 C 79 % 1008,6 hPa 0,0 l/m 0 min 2 min 29 W/m 29,0 km/h (5 Bft) 100,00 %
31.12.2022 14:10 17,2 C 16,1 C 11,1 C 80 % 1008,8 hPa 0,0 l/m 0 min 2 min 44 W/m 29,0 km/h (5 Bft) 100,00 %
31.12.2022 14:12 17,1 C 16,1 C 11,1 C 81 % 1008,7 hPa 0,0 l/m 0 min 2 min 59 W/m 38,6 km/h (5 Bft) 100,00 %
31.12.2022 14:14 17,1 C 16,1 C 11,1 C 81 % 1008,8 hPa 0,0 l/m 0 min 2 min 62 W/m 61,2 km/h (7 Bft) 100,00 %
31.12.2022 14:16 17,0 C 16,1 C 11,1 C 81 % 1008,7 hPa 0,0 l/m 0 min 2 min 58 W/m 51,5 km/h (7 Bft) 95,65 %
31.12.2022 14:18 17,0 C 16,1 C 11,1 C 81 % 1008,7 hPa 0,0 l/m 0 min 0 min 54 W/m 74,0 km/h (8 Bft) 100,00 %
31.12.2022 14:20 17,0 C 16,1 C 11,7 C 80 % 1008,7 hPa 0,0 l/m 0 min 0 min 54 W/m 57,9 km/h (7 Bft) 100,00 %
31.12.2022 14:22 17,0 C 16,1 C 11,7 C 80 % 1008,8 hPa 0,0 l/m 0 min 0 min 56 W/m 64,4 km/h (8 Bft) 100,00 %
31.12.2022 14:24 17,1 C 16,1 C 12,2 C 80 % 1008,8 hPa 0,0 l/m 0 min 0 min 74 W/m 54,7 km/h (7 Bft) 97,87 %
31.12.2022 14:26 17,1 C 16,1 C 12,2 C 80 % 1008,9 hPa 0,0 l/m 0 min 0 min 82 W/m 29,0 km/h (5 Bft) 97,87 %
31.12.2022 14:28 17,0 C 16,1 C 12,2 C 80 % 1008,7 hPa 0,0 l/m 0 min 0 min 73 W/m 32,2 km/h (5 Bft) 95,74 %
31.12.2022 14:30 17,0 C 16,1 C 12,2 C 80 % 1008,6 hPa 0,0 l/m 0 min 0 min 72 W/m 32,2 km/h (5 Bft) 95,65 %
31.12.2022 14:32 17,0 C 16,1 C 12,2 C 80 % 1008,6 hPa 0,0 l/m 0 min 0 min 70 W/m 29,0 km/h (5 Bft) 97,87 %
31.12.2022 14:34 16,9 C 16,7 C 12,2 C 80 % 1008,7 hPa 0,0 l/m 0 min 0 min 76 W/m 35,4 km/h (5 Bft) 97,87 %
31.12.2022 14:36 17,0 C 16,7 C 12,2 C 80 % 1008,7 hPa 0,0 l/m 0 min 0 min 86 W/m 35,4 km/h (5 Bft) 97,87 %
31.12.2022 14:38 17,1 C 16,7 C 12,2 C 79 % 1008,5 hPa 0,0 l/m 0 min 0 min 91 W/m 54,7 km/h (7 Bft) 95,74 %
31.12.2022 14:40 17,1 C 16,7 C 12,2 C 79 % 1008,6 hPa 0,0 l/m 0 min 0 min 90 W/m 41,8 km/h (6 Bft) 97,87 %
31.12.2022 14:42 17,1 C 16,7 C 12,2 C 78 % 1008,8 hPa 0,0 l/m 0 min 0 min 81 W/m 41,8 km/h (6 Bft) 97,87 %
31.12.2022 14:44 17,2 C 16,7 C 12,2 C 78 % 1008,7 hPa 0,0 l/m 0 min 0 min 65 W/m 22,5 km/h (4 Bft) 95,74 %
31.12.2022 14:46 17,1 C 16,7 C 12,2 C 78 % 1008,7 hPa 0,0 l/m 0 min 0 min 70 W/m 25,7 km/h (4 Bft) 97,87 %
31.12.2022 14:48 17,1 C 16,7 C 12,2 C 78 % 1008,7 hPa 0,0 l/m 0 min 0 min 74 W/m 57,9 km/h (7 Bft) 97,87 %
31.12.2022 14:50 17,1 C 16,7 C 12,2 C 78 % 1008,7 hPa 0,0 l/m 0 min 0 min 71 W/m 45,1 km/h (6 Bft) 95,65 %
31.12.2022 14:52 17,1 C 16,7 C 12,2 C 78 % 1008,7 hPa 0,0 l/m 0 min 0 min 67 W/m 25,7 km/h (4 Bft) 97,87 %
31.12.2022 14:54 17,1 C 16,1 C 12,2 C 78 % 1008,8 hPa 0,0 l/m 0 min 0 min 66 W/m 38,6 km/h (5 Bft) 95,74 %
31.12.2022 14:56 17,1 C 16,1 C 12,2 C 78 % 1008,7 hPa 0,0 l/m 0 min 0 min 65 W/m 32,2 km/h (5 Bft) 95,74 %
31.12.2022 14:58 17,1 C 16,1 C 12,2 C 78 % 1008,7 hPa 0,0 l/m 0 min 0 min 61 W/m 29,0 km/h (5 Bft) 95,74 %
31.12.2022 15:00 17,1 C 16,1 C 12,2 C 78 % 1008,7 hPa 0,0 l/m 0 min 0 min 55 W/m 41,8 km/h (6 Bft) 93,62 %
31.12.2022 15:02 17,0 C 16,1 C 12,2 C 78 % 1008,7 hPa 0,0 l/m 0 min 0 min 49 W/m 29,0 km/h (5 Bft) 89,36 %
31.12.2022 15:04 17,0 C 16,1 C 12,2 C 78 % 1008,8 hPa 0,0 l/m 0 min 0 min 49 W/m 41,8 km/h (6 Bft) 95,74 %
31.12.2022 15:06 16,9 C 16,1 C 12,2 C 78 % 1008,8 hPa 0,0 l/m 0 min 0 min 61 W/m 41,8 km/h (6 Bft) 97,83 %
31.12.2022 15:08 16,9 C 16,1 C 12,2 C 78 % 1008,8 hPa 0,0 l/m 0 min 0 min 65 W/m 32,2 km/h (5 Bft) 95,74 %
31.12.2022 15:10 16,9 C 16,1 C 12,2 C 77 % 1008,6 hPa 0,0 l/m 0 min 0 min 63 W/m 32,2 km/h (5 Bft) 95,74 %
31.12.2022 15:12 16,9 C 16,1 C 12,2 C 78 % 1008,6 hPa 0,0 l/m 0 min 0 min 62 W/m 38,6 km/h (5 Bft) 95,74 %
31.12.2022 15:14 16,8 C 16,1 C 12,2 C 77 % 1008,6 hPa 0,0 l/m 0 min 0 min 57 W/m 38,6 km/h (5 Bft) 97,87 %
31.12.2022 15:16 16,8 C 16,1 C 11,7 C 77 % 1008,6 hPa 0,0 l/m 0 min 0 min 54 W/m 41,8 km/h (6 Bft) 95,74 %
31.12.2022 15:18 16,8 C 16,1 C 11,7 C 77 % 1008,6 hPa 0,0 l/m 0 min 0 min 51 W/m 25,7 km/h (4 Bft) 97,87 %
31.12.2022 15:20 16,8 C 16,1 C 11,7 C 77 % 1008,6 hPa 0,0 l/m 0 min 0 min 49 W/m 32,2 km/h (5 Bft) 97,87 %
31.12.2022 15:22 16,8 C 16,1 C 11,7 C 77 % 1008,7 hPa 0,0 l/m 0 min 0 min 49 W/m 45,1 km/h (6 Bft) 95,74 %
31.12.2022 15:24 16,7 C 16,1 C 11,7 C 78 % 1008,8 hPa 0,0 l/m 0 min 0 min 45 W/m 22,5 km/h (4 Bft) 93,48 %
31.12.2022 15:26 16,7 C 15,6 C 11,7 C 78 % 1008,8 hPa 0,0 l/m 0 min 0 min 39 W/m 16,1 km/h (3 Bft) 97,87 %
31.12.2022 15:28 16,7 C 15,6 C 11,7 C 78 % 1008,8 hPa 0,0 l/m 0 min 0 min 34 W/m 19,3 km/h (3 Bft) 97,87 %
31.12.2022 15:30 16,6 C 15,6 C 11,7 C 78 % 1008,8 hPa 0,0 l/m 0 min 0 min 30 W/m 25,7 km/h (4 Bft) 97,87 %
31.12.2022 15:32 16,6 C 15,6 C 11,7 C 79 % 1008,9 hPa 0,0 l/m 0 min 0 min 25 W/m 22,5 km/h (4 Bft) 95,74 %
31.12.2022 15:34 16,5 C 15,6 C 11,1 C 80 % 1008,8 hPa 0,0 l/m 0 min 0 min 20 W/m 19,3 km/h (3 Bft) 95,74 %
31.12.2022 15:36 16,4 C 15,6 C 11,1 C 80 % 1008,8 hPa 0,0 l/m 0 min 0 min 20 W/m 32,2 km/h (5 Bft) 100,00 %
31.12.2022 15:38 16,4 C 15,6 C 11,1 C 81 % 1008,8 hPa 0,0 l/m 0 min 0 min 23 W/m 29,0 km/h (5 Bft) 97,87 %
31.12.2022 15:40 16,3 C 15,0 C 11,1 C 81 % 1008,8 hPa 0,0 l/m 0 min 0 min 23 W/m 25,7 km/h (4 Bft) 97,87 %
31.12.2022 15:42 16,3 C 15,0 C 11,1 C 81 % 1008,8 hPa 0,0 l/m 0 min 0 min 23 W/m 38,6 km/h (5 Bft) 97,83 %
31.12.2022 15:44 16,2 C 15,0 C 11,1 C 82 % 1008,9 hPa 0,0 l/m 0 min 0 min 21 W/m 38,6 km/h (5 Bft) 100,00 %
31.12.2022 15:46 16,2 C 15,0 C 11,1 C 82 % 1008,9 hPa 0,0 l/m 0 min 0 min 21 W/m 38,6 km/h (5 Bft) 97,87 %
31.12.2022 15:48 16,1 C 15,0 C 11,1 C 82 % 1008,8 hPa 0,0 l/m 0 min 0 min 21 W/m 25,7 km/h (4 Bft) 97,87 %
31.12.2022 15:50 16,1 C 15,0 C 11,1 C 83 % 1008,9 hPa 0,0 l/m 0 min 0 min 21 W/m 32,2 km/h (5 Bft) 95,74 %
31.12.2022 15:52 16,0 C 15,0 C 11,1 C 83 % 1008,9 hPa 0,0 l/m 0 min 0 min 21 W/m 25,7 km/h (4 Bft) 100,00 %
31.12.2022 15:54 16,0 C 15,0 C 11,1 C 83 % 1008,9 hPa 0,0 l/m 0 min 0 min 21 W/m 38,6 km/h (5 Bft) 100,00 %
31.12.2022 15:56 15,9 C 15,0 C 11,1 C 83 % 1008,9 hPa 0,0 l/m 0 min 0 min 21 W/m 22,5 km/h (4 Bft) 100,00 %
31.12.2022 16:00 15,9 C 15,0 C 11,1 C 83 % 1009,0 hPa 0,0 l/m 0 min 0 min 19 W/m 25,7 km/h (4 Bft) 100,00 %
31.12.2022 16:05 15,8 C 15,0 C 11,1 C 83 % 1009,0 hPa 0,0 l/m 0 min 0 min 16 W/m 25,7 km/h (4 Bft) 81,58 %
31.12.2022 16:08 15,8 C 14,4 C 10,6 C 84 % 1009,1 hPa 0,0 l/m 0 min 0 min 18 W/m 19,3 km/h (3 Bft) 90,00 %
31.12.2022 16:10 15,7 C 14,4 C 10,6 C 84 % 1009,2 hPa 0,0 l/m 0 min 0 min 12 W/m 12,9 km/h (3 Bft) 96,55 %
31.12.2022 16:12 15,7 C 14,4 C 10,6 C 84 % 1009,2 hPa 0,0 l/m 0 min 0 min 11 W/m 19,3 km/h (3 Bft) 95,65 %
31.12.2022 16:14 15,6 C 14,4 C 10,6 C 84 % 1009,2 hPa 0,0 l/m 0 min 0 min 8 W/m 19,3 km/h (3 Bft) 95,83 %
31.12.2022 16:16 15,6 C 14,4 C 10,6 C 84 % 1009,2 hPa 0,0 l/m 0 min 0 min 7 W/m 12,9 km/h (3 Bft) 97,14 %
31.12.2022 16:18 15,6 C 14,4 C 10,6 C 84 % 1009,2 hPa 0,0 l/m 0 min 0 min 7 W/m 19,3 km/h (3 Bft) 94,83 %
31.12.2022 16:20 15,6 C 14,4 C 10,6 C 84 % 1009,3 hPa 0,0 l/m 0 min 0 min 6 W/m 9,7 km/h (2 Bft) 95,83 %
31.12.2022 16:22 15,6 C 14,4 C 10,6 C 84 % 1009,3 hPa 0,0 l/m 0 min 0 min 5 W/m 25,7 km/h (4 Bft) 94,29 %
31.12.2022 16:24 15,5 C 14,4 C 10,6 C 85 % 1009,3 hPa 0,0 l/m 0 min 0 min 5 W/m 25,7 km/h (4 Bft) 91,49 %
31.12.2022 16:26 15,5 C 14,4 C 10,6 C 85 % 1009,2 hPa 0,0 l/m 0 min 0 min 3 W/m 19,3 km/h (3 Bft) 95,74 %
31.12.2022 16:28 15,5 C 14,4 C 10,6 C 85 % 1009,3 hPa 0,0 l/m 0 min 0 min 0 W/m 12,9 km/h (3 Bft) 95,74 %
31.12.2022 16:30 15,5 C 14,4 C 10,6 C 85 % 1009,3 hPa 0,0 l/m 0 min 0 min 0 W/m 9,7 km/h (2 Bft) 93,48 %
31.12.2022 16:32 15,4 C 14,4 C 10,6 C 85 % 1009,3 hPa 0,0 l/m 0 min 0 min 0 W/m 16,1 km/h (3 Bft) 93,62 %
31.12.2022 16:34 15,4 C 14,4 C 10,6 C 85 % 1009,3 hPa 0,0 l/m 0 min 0 min 0 W/m 12,9 km/h (3 Bft) 95,74 %
31.12.2022 16:36 15,4 C 14,4 C 10,6 C 85 % 1009,3 hPa 0,0 l/m 0 min 0 min 0 W/m 16,1 km/h (3 Bft) 95,74 %
31.12.2022 16:38 15,4 C 14,4 C 10,6 C 85 % 1009,2 hPa 0,0 l/m 0 min 0 min 0 W/m 16,1 km/h (3 Bft) 95,74 %
31.12.2022 16:40 15,4 C 14,4 C 10,6 C 85 % 1009,3 hPa 0,0 l/m 0 min 0 min 0 W/m 16,1 km/h (3 Bft) 95,74 %
31.12.2022 16:42 15,3 C 14,4 C 10,6 C 85 % 1009,3 hPa 0,0 l/m 0 min 0 min 0 W/m 16,1 km/h (3 Bft) 93,62 %
31.12.2022 16:44 15,3 C 14,4 C 10,6 C 85 % 1009,3 hPa 0,0 l/m 0 min 0 min 0 W/m 12,9 km/h (3 Bft) 95,74 %
31.12.2022 16:46 15,3 C 14,4 C 10,6 C 85 % 1009,2 hPa 0,0 l/m 0 min 0 min 0 W/m 16,1 km/h (3 Bft) 97,83 %
31.12.2022 16:48 15,3 C 14,4 C 10,6 C 85 % 1009,2 hPa 0,0 l/m 0 min 0 min 0 W/m 19,3 km/h (3 Bft) 74,47 %
31.12.2022 16:50 15,2 C 14,4 C 10,6 C 85 % 1009,2 hPa 0,0 l/m 0 min 0 min 0 W/m 16,1 km/h (3 Bft) 95,74 %
31.12.2022 16:52 15,3 C 14,4 C 10,6 C 85 % 1009,1 hPa 0,0 l/m 0 min 0 min 0 W/m 16,1 km/h (3 Bft) 97,87 %
31.12.2022 16:54 15,2 C 14,4 C 10,6 C 85 % 1009,3 hPa 0,0 l/m 0 min 0 min 0 W/m 22,5 km/h (4 Bft) 95,74 %
31.12.2022 16:56 15,3 C 14,4 C 10,6 C 85 % 1009,2 hPa 0,0 l/m 0 min 0 min 0 W/m 16,1 km/h (3 Bft) 97,87 %
31.12.2022 16:58 15,3 C 14,4 C 10,6 C 85 % 1009,1 hPa 0,0 l/m 0 min 0 min 0 W/m 22,5 km/h (4 Bft) 100,00 %
31.12.2022 17:00 15,3 C 14,4 C 10,6 C 85 % 1009,2 hPa 0,0 l/m 0 min 0 min 0 W/m 22,5 km/h (4 Bft) 97,83 %
31.12.2022 17:02 15,3 C 14,4 C 10,6 C 85 % 1009,2 hPa 0,0 l/m 0 min 0 min 0 W/m 25,7 km/h (4 Bft) 97,87 %
31.12.2022 17:04 15,3 C 14,4 C 10,6 C 84 % 1009,2 hPa 0,0 l/m 0 min 0 min 0 W/m 19,3 km/h (3 Bft) 95,74 %
31.12.2022 17:06 15,4 C 14,4 C 10,6 C 84 % 1009,1 hPa 0,0 l/m 0 min 0 min 0 W/m 22,5 km/h (4 Bft) 100,00 %
31.12.2022 17:08 15,4 C 14,4 C 10,6 C 84 % 1009,1 hPa 0,0 l/m 0 min 0 min 0 W/m 19,3 km/h (3 Bft) 97,14 %
31.12.2022 17:10 15,4 C 14,4 C 10,6 C 84 % 1009,1 hPa 0,0 l/m 0 min 0 min 0 W/m 16,1 km/h (3 Bft) 97,87 %
31.12.2022 17:12 15,4 C 14,4 C 10,6 C 83 % 1009,2 hPa 0,0 l/m 0 min 0 min 0 W/m 22,5 km/h (4 Bft) 98,18 %
31.12.2022 17:14 15,4 C 14,4 C 10,6 C 83 % 1009,0 hPa 0,0 l/m 0 min 0 min 0 W/m 19,3 km/h (3 Bft) 100,00 %
31.12.2022 17:16 15,4 C 14,4 C 10,6 C 83 % 1009,0 hPa 0,0 l/m 0 min 0 min 0 W/m 16,1 km/h (3 Bft) 100,00 %
31.12.2022 17:18 15,4 C 14,4 C 10,6 C 83 % 1009,1 hPa 0,0 l/m 0 min 0 min 0 W/m 16,1 km/h (3 Bft) 97,87 %
31.12.2022 17:20 15,4 C 14,4 C 10,6 C 83 % 1009,0 hPa 0,0 l/m 0 min 0 min 0 W/m 22,5 km/h (4 Bft) 97,87 %
31.12.2022 17:22 15,4 C 14,4 C 10,6 C 83 % 1009,0 hPa 0,0 l/m 0 min 0 min 0 W/m 16,1 km/h (3 Bft) 100,00 %
31.12.2022 17:24 15,4 C 14,4 C 10,6 C 83 % 1009,1 hPa 0,0 l/m 0 min 0 min 0 W/m 16,1 km/h (3 Bft) 95,74 %
31.12.2022 17:26 15,4 C 14,4 C 10,6 C 83 % 1009,1 hPa 0,0 l/m 0 min 0 min 0 W/m 16,1 km/h (3 Bft) 100,00 %
31.12.2022 17:28 15,4 C 14,4 C 10,6 C 82 % 1009,1 hPa 0,0 l/m 0 min 0 min 0 W/m 19,3 km/h (3 Bft) 97,87 %
31.12.2022 17:30 15,4 C 14,4 C 10,6 C 82 % 1009,1 hPa 0,0 l/m 0 min 0 min 0 W/m 16,1 km/h (3 Bft) 100,00 %
31.12.2022 17:32 15,4 C 14,4 C 10,6 C 82 % 1009,1 hPa 0,0 l/m 0 min 0 min 0 W/m 16,1 km/h (3 Bft) 100,00 %
31.12.2022 17:34 15,4 C 14,4 C 10,6 C 82 % 1009,1 hPa 0,0 l/m 0 min 0 min 0 W/m 16,1 km/h (3 Bft) 100,00 %
31.12.2022 17:36 15,4 C 14,4 C 10,6 C 82 % 1009,1 hPa 0,0 l/m 0 min 0 min 0 W/m 16,1 km/h (3 Bft) 97,87 %
31.12.2022 17:38 15,4 C 14,4 C 10,6 C 82 % 1009,1 hPa 0,0 l/m 0 min 0 min 0 W/m 22,5 km/h (4 Bft) 97,87 %
31.12.2022 17:40 15,5 C 14,4 C 10,6 C 81 % 1009,1 hPa 0,0 l/m 0 min 0 min 0 W/m 19,3 km/h (3 Bft) 93,62 %
31.12.2022 17:42 15,5 C 14,4 C 10,6 C 81 % 1009,0 hPa 0,0 l/m 0 min 0 min 0 W/m 29,0 km/h (5 Bft) 97,87 %
31.12.2022 17:44 15,6 C 15,0 C 10,6 C 81 % 1009,0 hPa 0,0 l/m 0 min 0 min 0 W/m 25,7 km/h (4 Bft) 97,83 %
31.12.2022 17:46 15,6 C 15,0 C 10,6 C 81 % 1009,0 hPa 0,0 l/m 0 min 0 min 0 W/m 25,7 km/h (4 Bft) 97,87 %
31.12.2022 17:48 15,6 C 15,0 C 10,6 C 80 % 1009,0 hPa 0,0 l/m 0 min 0 min 0 W/m 29,0 km/h (5 Bft) 97,87 %
31.12.2022 17:50 15,6 C 15,0 C 10,6 C 80 % 1009,0 hPa 0,0 l/m 0 min 0 min 0 W/m 25,7 km/h (4 Bft) 95,74 %
31.12.2022 17:52 15,6 C 14,4 C 10,6 C 80 % 1009,0 hPa 0,0 l/m 0 min 0 min 0 W/m 29,0 km/h (5 Bft) 97,87 %
31.12.2022 17:54 15,6 C 15,0 C 10,6 C 80 % 1009,1 hPa 0,0 l/m 0 min 0 min 0 W/m 19,3 km/h (3 Bft) 97,87 %
31.12.2022 17:56 15,6 C 14,4 C 10,6 C 80 % 1009,1 hPa 0,0 l/m 0 min 0 min 0 W/m 22,5 km/h (4 Bft) 97,87 %
31.12.2022 17:58 15,6 C 14,4 C 10,6 C 80 % 1009,2 hPa 0,0 l/m 0 min 0 min 0 W/m 22,5 km/h (4 Bft) 97,83 %
31.12.2022 18:00 15,6 C 14,4 C 10,6 C 80 % 1009,2 hPa 0,0 l/m 0 min 0 min 0 W/m 22,5 km/h (4 Bft) 97,87 %
31.12.2022 18:02 15,6 C 14,4 C 10,6 C 80 % 1009,1 hPa 0,0 l/m 0 min 0 min 0 W/m 32,2 km/h (5 Bft) 97,87 %
31.12.2022 18:04 15,6 C 14,4 C 10,6 C 80 % 1009,1 hPa 0,0 l/m 0 min 0 min 0 W/m 19,3 km/h (3 Bft) 97,87 %
31.12.2022 18:08 15,6 C 14,4 C 10,6 C 79 % 1009,1 hPa 0,0 l/m 0 min 0 min 0 W/m 19,3 km/h (3 Bft) 96,91 %
31.12.2022 18:10 15,6 C 14,4 C 10,6 C 79 % 1009,1 hPa 0,0 l/m 0 min 0 min 0 W/m 19,3 km/h (3 Bft) 95,74 %
31.12.2022 18:12 15,6 C 14,4 C 10,6 C 79 % 1009,0 hPa 0,0 l/m 0 min 0 min 0 W/m 19,3 km/h (3 Bft) 97,83 %
31.12.2022 18:14 15,6 C 14,4 C 10,6 C 79 % 1009,1 hPa 0,0 l/m 0 min 0 min 0 W/m 25,7 km/h (4 Bft) 97,87 %
31.12.2022 18:16 15,6 C 14,4 C 10,6 C 79 % 1009,1 hPa 0,0 l/m 0 min 0 min 0 W/m 32,2 km/h (5 Bft) 97,87 %
31.12.2022 18:18 15,6 C 14,4 C 10,6 C 79 % 1009,1 hPa 0,0 l/m 0 min 0 min 0 W/m 22,5 km/h (4 Bft) 95,74 %
31.12.2022 18:20 15,6 C 14,4 C 10,6 C 79 % 1009,0 hPa 0,0 l/m 0 min 0 min 0 W/m 22,5 km/h (4 Bft) 97,87 %
31.12.2022 18:22 15,6 C 14,4 C 10,6 C 79 % 1009,0 hPa 0,0 l/m 0 min 0 min 0 W/m 22,5 km/h (4 Bft) 97,87 %
31.12.2022 18:24 15,6 C 14,4 C 10,6 C 78 % 1008,9 hPa 0,0 l/m 0 min 0 min 0 W/m 25,7 km/h (4 Bft) 95,74 %
31.12.2022 18:26 15,6 C 14,4 C 10,6 C 78 % 1008,8 hPa 0,0 l/m 0 min 0 min 0 W/m 22,5 km/h (4 Bft) 95,65 %
31.12.2022 18:28 15,6 C 14,4 C 10,6 C 78 % 1008,9 hPa 0,0 l/m 0 min 0 min 0 W/m 16,1 km/h (3 Bft) 95,74 %
31.12.2022 18:30 15,6 C 14,4 C 10,6 C 78 % 1008,8 hPa 0,0 l/m 0 min 0 min 0 W/m 35,4 km/h (5 Bft) 97,87 %
31.12.2022 18:32 15,6 C 14,4 C 10,6 C 78 % 1008,7 hPa 0,0 l/m 0 min 0 min 0 W/m 38,6 km/h (5 Bft) 91,49 %
31.12.2022 18:34 15,6 C 14,4 C 10,6 C 77 % 1008,7 hPa 0,0 l/m 0 min 0 min 0 W/m 35,4 km/h (5 Bft) 97,87 %
31.12.2022 18:36 15,6 C 14,4 C 10,6 C 77 % 1008,8 hPa 0,0 l/m 0 min 0 min 0 W/m 35,4 km/h (5 Bft) 95,74 %
31.12.2022 18:38 15,6 C 14,4 C 10,6 C 77 % 1008,8 hPa 0,0 l/m 0 min 0 min 0 W/m 25,7 km/h (4 Bft) 95,65 %
31.12.2022 18:40 15,6 C 14,4 C 10,6 C 77 % 1008,7 hPa 0,0 l/m 0 min 0 min 0 W/m 38,6 km/h (5 Bft) 95,74 %
31.12.2022 18:42 15,6 C 14,4 C 10,6 C 77 % 1008,8 hPa 0,0 l/m 0 min 0 min 0 W/m 25,7 km/h (4 Bft) 93,62 %
31.12.2022 18:44 15,6 C 14,4 C 10,6 C 77 % 1008,8 hPa 0,0 l/m 0 min 0 min 0 W/m 19,3 km/h (3 Bft) 93,62 %
31.12.2022 18:46 15,6 C 14,4 C 10,6 C 76 % 1008,8 hPa 0,0 l/m 0 min 0 min 0 W/m 29,0 km/h (5 Bft) 95,74 %
31.12.2022 18:48 15,6 C 14,4 C 10,6 C 76 % 1008,8 hPa 0,0 l/m 0 min 0 min 0 W/m 25,7 km/h (4 Bft) 95,74 %
31.12.2022 18:50 15,6 C 14,4 C 10,6 C 76 % 1008,8 hPa 0,0 l/m 0 min 0 min 0 W/m 29,0 km/h (5 Bft) 95,74 %
31.12.2022 18:52 15,6 C 14,4 C 10,6 C 76 % 1008,7 hPa 0,0 l/m 0 min 0 min 0 W/m 25,7 km/h (4 Bft) 93,48 %
31.12.2022 18:54 15,6 C 14,4 C 10,6 C 76 % 1008,8 hPa 0,0 l/m 0 min 0 min 0 W/m 25,7 km/h (4 Bft) 95,74 %
31.12.2022 18:56 15,6 C 14,4 C 10,6 C 76 % 1008,7 hPa 0,0 l/m 0 min 0 min 0 W/m 22,5 km/h (4 Bft) 95,74 %
31.12.2022 18:58 15,6 C 14,4 C 10,6 C 76 % 1008,8 hPa 0,0 l/m 0 min 0 min 0 W/m 29,0 km/h (5 Bft) 97,87 %
31.12.2022 19:00 15,6 C 14,4 C 10,6 C 76 % 1008,7 hPa 0,0 l/m 0 min 0 min 0 W/m 32,2 km/h (5 Bft) 97,87 %
31.12.2022 19:02 15,6 C 14,4 C 10,6 C 75 % 1008,8 hPa 0,0 l/m 0 min 0 min 0 W/m 29,0 km/h (5 Bft) 95,74 %
31.12.2022 19:04 15,6 C 14,4 C 10,6 C 75 % 1008,8 hPa 0,0 l/m 0 min 0 min 0 W/m 38,6 km/h (5 Bft) 95,74 %
31.12.2022 19:06 15,6 C 14,4 C 10,6 C 75 % 1008,7 hPa 0,0 l/m 0 min 0 min 0 W/m 22,5 km/h (4 Bft) 100,00 %
31.12.2022 19:08 15,6 C 14,4 C 10,6 C 75 % 1008,8 hPa 0,0 l/m 0 min 0 min 0 W/m 25,7 km/h (4 Bft) 97,83 %
31.12.2022 19:10 15,6 C 14,4 C 10,6 C 75 % 1008,7 hPa 0,0 l/m 0 min 0 min 0 W/m 29,0 km/h (5 Bft) 97,87 %
31.12.2022 19:12 15,6 C 14,4 C 10,6 C 75 % 1008,7 hPa 0,0 l/m 0 min 0 min 0 W/m 22,5 km/h (4 Bft) 97,87 %
31.12.2022 19:14 15,6 C 14,4 C 10,6 C 75 % 1008,7 hPa 0,0 l/m 0 min 0 min 0 W/m 32,2 km/h (5 Bft) 97,87 %
31.12.2022 19:16 15,5 C 14,4 C 10,6 C 74 % 1008,7 hPa 0,0 l/m 0 min 0 min 0 W/m 35,4 km/h (5 Bft) 97,87 %
31.12.2022 19:18 15,5 C 14,4 C 10,6 C 74 % 1008,6 hPa 0,0 l/m 0 min 0 min 0 W/m 25,7 km/h (4 Bft) 97,87 %
31.12.2022 19:20 15,5 C 14,4 C 10,6 C 74 % 1008,6 hPa 0,0 l/m 0 min 0 min 0 W/m 22,5 km/h (4 Bft) 97,14 %
31.12.2022 19:22 15,5 C 14,4 C 10,6 C 74 % 1008,7 hPa 0,0 l/m 0 min 0 min 0 W/m 22,5 km/h (4 Bft) 100,00 %
31.12.2022 19:24 15,4 C 14,4 C 10,6 C 74 % 1008,6 hPa 0,0 l/m 0 min 0 min 0 W/m 25,7 km/h (4 Bft) 95,74 %
31.12.2022 19:26 15,4 C 14,4 C 10,6 C 74 % 1008,7 hPa 0,0 l/m 0 min 0 min 0 W/m 19,3 km/h (3 Bft) 97,83 %
31.12.2022 19:28 15,4 C 14,4 C 10,6 C 74 % 1008,7 hPa 0,0 l/m 0 min 0 min 0 W/m 19,3 km/h (3 Bft) 100,00 %
31.12.2022 19:30 15,4 C 14,4 C 10,6 C 74 % 1008,7 hPa 0,0 l/m 0 min 0 min 0 W/m 25,7 km/h (4 Bft) 100,00 %
31.12.2022 19:32 15,4 C 14,4 C 10,6 C 73 % 1008,7 hPa 0,0 l/m 0 min 0 min 0 W/m 22,5 km/h (4 Bft) 100,00 %
31.12.2022 19:34 15,4 C 14,4 C 10,6 C 73 % 1008,7 hPa 0,0 l/m 0 min 0 min 0 W/m 19,3 km/h (3 Bft) 100,00 %
31.12.2022 19:36 15,4 C 14,4 C 10,6 C 73 % 1008,6 hPa 0,0 l/m 0 min 0 min 0 W/m 22,5 km/h (4 Bft) 100,00 %
31.12.2022 19:38 15,4 C 14,4 C 10,6 C 73 % 1008,6 hPa 0,0 l/m 0 min 0 min 0 W/m 19,3 km/h (3 Bft) 100,00 %
31.12.2022 19:40 15,4 C 14,4 C 10,6 C 73 % 1008,6 hPa 0,0 l/m 0 min 0 min 0 W/m 22,5 km/h (4 Bft) 100,00 %
31.12.2022 19:42 15,4 C 14,4 C 10,6 C 73 % 1008,6 hPa 0,0 l/m 0 min 0 min 0 W/m 22,5 km/h (4 Bft) 100,00 %
31.12.2022 19:44 15,4 C 14,4 C 10,6 C 72 % 1008,6 hPa 0,0 l/m 0 min 0 min 0 W/m 16,1 km/h (3 Bft) 100,00 %
31.12.2022 19:46 15,4 C 14,4 C 10,6 C 72 % 1008,6 hPa 0,0 l/m 0 min 0 min 0 W/m 22,5 km/h (4 Bft) 100,00 %
31.12.2022 19:48 15,4 C 14,4 C 10,6 C 72 % 1008,5 hPa 0,0 l/m 0 min 0 min 0 W/m 35,4 km/h (5 Bft) 100,00 %
31.12.2022 19:50 15,4 C 14,4 C 10,6 C 72 % 1008,5 hPa 0,0 l/m 0 min 0 min 0 W/m 35,4 km/h (5 Bft) 100,00 %
31.12.2022 19:52 15,4 C 14,4 C 10,6 C 71 % 1008,6 hPa 0,0 l/m 0 min 0 min 0 W/m 29,0 km/h (5 Bft) 100,00 %
31.12.2022 19:54 15,4 C 14,4 C 10,6 C 71 % 1008,6 hPa 0,0 l/m 0 min 0 min 0 W/m 19,3 km/h (3 Bft) 100,00 %
31.12.2022 19:56 15,4 C 14,4 C 10,6 C 71 % 1008,6 hPa 0,0 l/m 0 min 0 min 0 W/m 19,3 km/h (3 Bft) 97,87 %
31.12.2022 19:58 15,4 C 14,4 C 10,6 C 71 % 1008,6 hPa 0,0 l/m 0 min 0 min 0 W/m 22,5 km/h (4 Bft) 100,00 %
31.12.2022 20:00 15,4 C 14,4 C 10,6 C 71 % 1008,6 hPa 0,0 l/m 0 min 0 min 0 W/m 29,0 km/h (5 Bft) 97,87 %
31.12.2022 20:02 15,5 C 14,4 C 10,6 C 70 % 1008,6 hPa 0,0 l/m 0 min 0 min 0 W/m 19,3 km/h (3 Bft) 97,87 %
31.12.2022 20:04 15,5 C 14,4 C 10,6 C 70 % 1008,6 hPa 0,0 l/m 0 min 0 min 0 W/m 16,1 km/h (3 Bft) 100,00 %
31.12.2022 20:06 15,5 C 14,4 C 10,6 C 70 % 1008,7 hPa 0,0 l/m 0 min 0 min 0 W/m 16,1 km/h (3 Bft) 100,00 %
31.12.2022 20:08 15,4 C 14,4 C 10,6 C 70 % 1008,7 hPa 0,0 l/m 0 min 0 min 0 W/m 16,1 km/h (3 Bft) 100,00 %
31.12.2022 20:10 15,4 C 14,4 C 10,6 C 70 % 1008,7 hPa 0,0 l/m 0 min 0 min 0 W/m 12,9 km/h (3 Bft) 100,00 %
31.12.2022 20:12 15,4 C 14,4 C 10,0 C 70 % 1008,6 hPa 0,0 l/m 0 min 0 min 0 W/m 12,9 km/h (3 Bft) 100,00 %
31.12.2022 20:14 15,4 C 14,4 C 10,0 C 70 % 1008,7 hPa 0,0 l/m 0 min 0 min 0 W/m 12,9 km/h (3 Bft) 97,87 %
31.12.2022 20:16 15,4 C 14,4 C 10,0 C 70 % 1008,7 hPa 0,0 l/m 0 min 0 min 0 W/m 16,1 km/h (3 Bft) 97,87 %
31.12.2022 20:18 15,3 C 14,4 C 10,0 C 70 % 1008,7 hPa 0,0 l/m 0 min 0 min 0 W/m 29,0 km/h (5 Bft) 100,00 %
31.12.2022 20:20 15,3 C 14,4 C 10,0 C 70 % 1008,7 hPa 0,0 l/m 0 min 0 min 0 W/m 16,1 km/h (3 Bft) 95,74 %
31.12.2022 20:22 15,3 C 14,4 C 10,0 C 70 % 1008,8 hPa 0,0 l/m 0 min 0 min 0 W/m 19,3 km/h (3 Bft) 97,83 %
31.12.2022 20:24 15,3 C 14,4 C 10,0 C 70 % 1008,8 hPa 0,0 l/m 0 min 0 min 0 W/m 16,1 km/h (3 Bft) 95,74 %
31.12.2022 20:26 15,3 C 14,4 C 10,0 C 70 % 1008,8 hPa 0,0 l/m 0 min 0 min 0 W/m 12,9 km/h (3 Bft) 95,74 %
31.12.2022 20:28 15,3 C 14,4 C 10,0 C 70 % 1008,9 hPa 0,0 l/m 0 min 0 min 0 W/m 12,9 km/h (3 Bft) 93,62 %
31.12.2022 20:30 15,3 C 14,4 C 10,0 C 70 % 1008,9 hPa 0,0 l/m 0 min 0 min 0 W/m 22,5 km/h (4 Bft) 95,74 %
31.12.2022 20:32 15,2 C 14,4 C 10,0 C 69 % 1008,9 hPa 0,0 l/m 0 min 0 min 0 W/m 16,1 km/h (3 Bft) 95,74 %
31.12.2022 20:34 15,3 C 14,4 C 10,0 C 69 % 1008,9 hPa 0,0 l/m 0 min 0 min 0 W/m 16,1 km/h (3 Bft) 93,62 %
31.12.2022 20:36 15,3 C 14,4 C 10,0 C 69 % 1008,9 hPa 0,0 l/m 0 min 0 min 0 W/m 16,1 km/h (3 Bft) 95,65 %
31.12.2022 20:38 15,3 C 14,4 C 10,6 C 68 % 1009,0 hPa 0,0 l/m 0 min 0 min 0 W/m 16,1 km/h (3 Bft) 95,74 %
31.12.2022 20:40 15,4 C 14,4 C 10,6 C 68 % 1009,0 hPa 0,0 l/m 0 min 0 min 0 W/m 16,1 km/h (3 Bft) 93,62 %
31.12.2022 20:42 15,4 C 14,4 C 10,6 C 67 % 1009,1 hPa 0,0 l/m 0 min 0 min 0 W/m 22,5 km/h (4 Bft) 95,74 %
31.12.2022 20:44 15,4 C 14,4 C 10,6 C 67 % 1009,2 hPa 0,0 l/m 0 min 0 min 0 W/m 16,1 km/h (3 Bft) 93,62 %
31.12.2022 20:46 15,5 C 14,4 C 10,6 C 67 % 1009,1 hPa 0,0 l/m 0 min 0 min 0 W/m 16,1 km/h (3 Bft) 93,62 %
31.12.2022 20:48 15,5 C 14,4 C 10,6 C 67 % 1009,2 hPa 0,0 l/m 0 min 0 min 0 W/m 22,5 km/h (4 Bft) 95,74 %
31.12.2022 20:50 15,6 C 14,4 C 10,6 C 67 % 1009,1 hPa 0,0 l/m 0 min 0 min 0 W/m 19,3 km/h (3 Bft) 95,65 %
31.12.2022 20:52 15,6 C 15,0 C 10,6 C 66 % 1009,2 hPa 0,0 l/m 0 min 0 min 0 W/m 25,7 km/h (4 Bft) 93,62 %
31.12.2022 20:54 15,6 C 15,0 C 10,6 C 66 % 1009,2 hPa 0,0 l/m 0 min 0 min 0 W/m 29,0 km/h (5 Bft) 93,62 %
31.12.2022 20:56 15,7 C 15,0 C 10,6 C 65 % 1009,3 hPa 0,0 l/m 0 min 0 min 0 W/m 45,1 km/h (6 Bft) 97,87 %
31.12.2022 20:58 15,8 C 15,0 C 10,6 C 65 % 1009,3 hPa 0,0 l/m 0 min 0 min 0 W/m 25,7 km/h (4 Bft) 97,87 %
31.12.2022 21:00 15,8 C 15,0 C 10,6 C 65 % 1009,3 hPa 0,0 l/m 0 min 0 min 0 W/m 19,3 km/h (3 Bft) 97,87 %
31.12.2022 21:02 15,9 C 15,0 C 10,6 C 65 % 1009,4 hPa 0,0 l/m 0 min 0 min 0 W/m 16,1 km/h (3 Bft) 97,87 %
31.12.2022 21:04 15,9 C 15,0 C 10,6 C 65 % 1009,4 hPa 0,0 l/m 0 min 0 min 0 W/m 29,0 km/h (5 Bft) 93,48 %
31.12.2022 21:06 15,9 C 15,6 C 11,1 C 64 % 1009,4 hPa 0,0 l/m 0 min 0 min 0 W/m 45,1 km/h (6 Bft) 96,61 %
31.12.2022 21:08 16,1 C 15,6 C 11,1 C 64 % 1009,5 hPa 0,0 l/m 0 min 0 min 0 W/m 32,2 km/h (5 Bft) 97,14 %
31.12.2022 21:10 16,1 C 15,6 C 11,1 C 64 % 1009,5 hPa 0,0 l/m 0 min 0 min 0 W/m 35,4 km/h (5 Bft) 100,00 %
31.12.2022 21:12 16,2 C 15,6 C 11,1 C 63 % 1009,5 hPa 0,0 l/m 0 min 0 min 0 W/m 51,5 km/h (7 Bft) 97,87 %
31.12.2022 21:14 16,2 C 15,6 C 11,1 C 63 % 1009,4 hPa 0,0 l/m 0 min 0 min 0 W/m 41,8 km/h (6 Bft) 93,62 %
31.12.2022 21:16 16,3 C 15,6 C 11,1 C 63 % 1009,5 hPa 0,0 l/m 0 min 0 min 0 W/m 35,4 km/h (5 Bft) 95,74 %
31.12.2022 21:18 16,3 C 15,6 C 11,1 C 63 % 1009,5 hPa 0,0 l/m 0 min 0 min 0 W/m 32,2 km/h (5 Bft) 97,83 %
31.12.2022 21:20 16,4 C 15,6 C 11,1 C 63 % 1009,5 hPa 0,0 l/m 0 min 0 min 0 W/m 35,4 km/h (5 Bft) 97,87 %
31.12.2022 21:22 16,4 C 15,6 C 11,1 C 63 % 1009,6 hPa 0,0 l/m 0 min 0 min 0 W/m 19,3 km/h (3 Bft) 95,74 %
31.12.2022 21:24 16,4 C 15,6 C 11,1 C 63 % 1009,6 hPa 0,0 l/m 0 min 0 min 0 W/m 29,0 km/h (5 Bft) 95,74 %
31.12.2022 21:26 16,4 C 15,6 C 11,1 C 62 % 1009,7 hPa 0,0 l/m 0 min 0 min 0 W/m 38,6 km/h (5 Bft) 97,87 %
31.12.2022 21:28 16,4 C 15,6 C 11,1 C 62 % 1009,8 hPa 0,0 l/m 0 min 0 min 0 W/m 29,0 km/h (5 Bft) 97,87 %
31.12.2022 21:30 16,5 C 15,6 C 11,1 C 62 % 1009,8 hPa 0,0 l/m 0 min 0 min 0 W/m 22,5 km/h (4 Bft) 97,87 %
31.12.2022 21:32 16,5 C 15,6 C 11,1 C 62 % 1009,8 hPa 0,0 l/m 0 min 0 min 0 W/m 38,6 km/h (5 Bft) 97,83 %
31.12.2022 21:34 16,6 C 15,6 C 11,1 C 62 % 1009,8 hPa 0,0 l/m 0 min 0 min 0 W/m 35,4 km/h (5 Bft) 97,87 %
31.12.2022 21:36 16,6 C 15,6 C 11,1 C 62 % 1010,0 hPa 0,0 l/m 0 min 0 min 0 W/m 35,4 km/h (5 Bft) 97,87 %
31.12.2022 21:38 16,6 C 15,6 C 11,1 C 62 % 1009,8 hPa 0,0 l/m 0 min 0 min 0 W/m 25,7 km/h (4 Bft) 93,62 %
31.12.2022 21:40 16,6 C 15,6 C 11,1 C 62 % 1009,9 hPa 0,0 l/m 0 min 0 min 0 W/m 38,6 km/h (5 Bft) 97,87 %
31.12.2022 21:42 16,6 C 15,6 C 11,1 C 62 % 1009,8 hPa 0,0 l/m 0 min 0 min 0 W/m 45,1 km/h (6 Bft) 97,87 %
31.12.2022 21:44 16,6 C 15,6 C 11,1 C 62 % 1009,9 hPa 0,0 l/m 0 min 0 min 0 W/m 45,1 km/h (6 Bft) 95,74 %
31.12.2022 21:46 16,6 C 15,6 C 11,1 C 62 % 1009,7 hPa 0,0 l/m 0 min 0 min 0 W/m 51,5 km/h (7 Bft) 97,83 %
31.12.2022 21:48 16,6 C 15,6 C 11,1 C 62 % 1009,9 hPa 0,0 l/m 0 min 0 min 0 W/m 32,2 km/h (5 Bft) 97,87 %
31.12.2022 21:50 16,6 C 15,6 C 11,1 C 62 % 1010,1 hPa 0,0 l/m 0 min 0 min 0 W/m 29,0 km/h (5 Bft) 97,87 %
31.12.2022 21:52 16,6 C 15,6 C 11,1 C 62 % 1009,8 hPa 0,0 l/m 0 min 0 min 0 W/m 41,8 km/h (6 Bft) 97,87 %
31.12.2022 21:54 16,6 C 15,6 C 11,1 C 62 % 1009,9 hPa 0,0 l/m 0 min 0 min 0 W/m 29,0 km/h (5 Bft) 97,87 %
31.12.2022 21:56 16,6 C 15,6 C 11,1 C 62 % 1009,9 hPa 0,0 l/m 0 min 0 min 0 W/m 38,6 km/h (5 Bft) 97,87 %
31.12.2022 21:58 16,6 C 15,6 C 11,1 C 62 % 1009,9 hPa 0,0 l/m 0 min 0 min 0 W/m 38,6 km/h (5 Bft) 95,74 %
31.12.2022 22:00 16,6 C 15,6 C 11,1 C 62 % 1010,0 hPa 0,0 l/m 0 min 0 min 0 W/m 29,0 km/h (5 Bft) 97,83 %
31.12.2022 22:02 16,6 C 15,6 C 11,1 C 62 % 1010,0 hPa 0,0 l/m 0 min 0 min 0 W/m 29,0 km/h (5 Bft) 100,00 %
31.12.2022 22:04 16,6 C 15,6 C 11,1 C 62 % 1009,9 hPa 0,0 l/m 0 min 0 min 0 W/m 29,0 km/h (5 Bft) 100,00 %
31.12.2022 22:06 16,6 C 15,6 C 11,1 C 62 % 1010,2 hPa 0,0 l/m 0 min 0 min 0 W/m 25,7 km/h (4 Bft) 95,74 %
31.12.2022 22:08 16,6 C 15,6 C 11,1 C 62 % 1010,1 hPa 0,0 l/m 0 min 0 min 0 W/m 25,7 km/h (4 Bft) 100,00 %
31.12.2022 22:10 16,6 C 15,6 C 11,1 C 62 % 1009,9 hPa 0,0 l/m 0 min 0 min 0 W/m 35,4 km/h (5 Bft) 97,87 %
31.12.2022 22:12 16,6 C 15,6 C 11,1 C 62 % 1010,1 hPa 0,0 l/m 0 min 0 min 0 W/m 32,2 km/h (5 Bft) 97,87 %
31.12.2022 22:14 16,6 C 15,6 C 11,1 C 62 % 1010,1 hPa 0,0 l/m 0 min 0 min 0 W/m 35,4 km/h (5 Bft) 95,74 %
31.12.2022 22:16 16,6 C 15,6 C 11,1 C 62 % 1010,1 hPa 0,0 l/m 0 min 0 min 0 W/m 35,4 km/h (5 Bft) 100,00 %
31.12.2022 22:18 16,5 C 15,6 C 11,1 C 62 % 1010,4 hPa 0,0 l/m 0 min 0 min 0 W/m 25,7 km/h (4 Bft) 97,87 %
31.12.2022 22:20 16,5 C 15,6 C 11,1 C 62 % 1010,2 hPa 0,0 l/m 0 min 0 min 0 W/m 22,5 km/h (4 Bft) 97,87 %
31.12.2022 22:22 16,5 C 15,6 C 11,1 C 62 % 1010,2 hPa 0,0 l/m 0 min 0 min 0 W/m 29,0 km/h (5 Bft) 95,74 %
31.12.2022 22:24 16,4 C 15,6 C 11,1 C 62 % 1010,1 hPa 0,0 l/m 0 min 0 min 0 W/m 29,0 km/h (5 Bft) 97,87 %
31.12.2022 22:26 16,4 C 15,6 C 11,1 C 62 % 1010,2 hPa 0,0 l/m 0 min 0 min 0 W/m 35,4 km/h (5 Bft) 97,87 %
31.12.2022 22:28 16,5 C 15,6 C 11,1 C 62 % 1010,2 hPa 0,0 l/m 0 min 0 min 0 W/m 22,5 km/h (4 Bft) 97,87 %
31.12.2022 22:30 16,4 C 15,6 C 11,1 C 63 % 1010,1 hPa 0,0 l/m 0 min 0 min 0 W/m 19,3 km/h (3 Bft) 97,83 %
31.12.2022 22:32 16,4 C 15,6 C 11,1 C 63 % 1010,1 hPa 0,0 l/m 0 min 0 min 0 W/m 25,7 km/h (4 Bft) 97,87 %
31.12.2022 22:34 16,4 C 15,6 C 11,1 C 63 % 1010,2 hPa 0,0 l/m 0 min 0 min 0 W/m 25,7 km/h (4 Bft) 95,74 %
31.12.2022 22:36 16,4 C 15,6 C 11,1 C 63 % 1010,3 hPa 0,0 l/m 0 min 0 min 0 W/m 35,4 km/h (5 Bft) 97,87 %
31.12.2022 22:38 16,4 C 15,6 C 11,1 C 63 % 1010,3 hPa 0,0 l/m 0 min 0 min 0 W/m 35,4 km/h (5 Bft) 97,87 %
31.12.2022 22:40 16,4 C 15,6 C 11,1 C 63 % 1010,3 hPa 0,0 l/m 0 min 0 min 0 W/m 35,4 km/h (5 Bft) 97,87 %
31.12.2022 22:42 16,4 C 15,6 C 11,1 C 63 % 1010,2 hPa 0,0 l/m 0 min 0 min 0 W/m 25,7 km/h (4 Bft) 97,87 %
31.12.2022 22:44 16,4 C 15,6 C 11,1 C 63 % 1010,2 hPa 0,0 l/m 0 min 0 min 0 W/m 25,7 km/h (4 Bft) 97,83 %
31.12.2022 22:46 16,4 C 15,6 C 11,1 C 63 % 1010,3 hPa 0,0 l/m 0 min 0 min 0 W/m 25,7 km/h (4 Bft) 97,87 %
31.12.2022 22:48 16,3 C 15,6 C 11,1 C 63 % 1010,3 hPa 0,0 l/m 0 min 0 min 0 W/m 32,2 km/h (5 Bft) 97,87 %
31.12.2022 22:50 16,3 C 15,0 C 11,1 C 63 % 1010,3 hPa 0,0 l/m 0 min 0 min 0 W/m 19,3 km/h (3 Bft) 97,87 %
31.12.2022 22:52 16,3 C 15,0 C 11,1 C 63 % 1010,3 hPa 0,0 l/m 0 min 0 min 0 W/m 22,5 km/h (4 Bft) 97,87 %
31.12.2022 22:54 16,3 C 15,6 C 10,6 C 63 % 1010,3 hPa 0,0 l/m 0 min 0 min 0 W/m 29,0 km/h (5 Bft) 100,00 %
31.12.2022 22:56 16,3 C 15,6 C 11,1 C 63 % 1010,2 hPa 0,0 l/m 0 min 0 min 0 W/m 32,2 km/h (5 Bft) 97,87 %
31.12.2022 22:58 16,3 C 15,6 C 11,1 C 63 % 1010,2 hPa 0,0 l/m 0 min 0 min 0 W/m 16,1 km/h (3 Bft) 100,00 %
31.12.2022 23:00 16,3 C 15,6 C 11,1 C 63 % 1010,3 hPa 0,0 l/m 0 min 0 min 0 W/m 38,6 km/h (5 Bft) 97,87 %
31.12.2022 23:02 16,3 C 15,6 C 11,1 C 63 % 1010,2 hPa 0,0 l/m 0 min 0 min 0 W/m 29,0 km/h (5 Bft) 97,87 %
31.12.2022 23:04 16,3 C 15,6 C 11,1 C 63 % 1010,3 hPa 0,0 l/m 0 min 0 min 0 W/m 32,2 km/h (5 Bft) 100,00 %
31.12.2022 23:06 16,3 C 15,6 C 11,1 C 63 % 1010,3 hPa 0,0 l/m 0 min 0 min 0 W/m 32,2 km/h (5 Bft) 98,21 %
31.12.2022 23:08 16,3 C 15,6 C 11,1 C 63 % 1010,3 hPa 0,0 l/m 0 min 0 min 0 W/m 35,4 km/h (5 Bft) 97,14 %
31.12.2022 23:10 16,3 C 15,6 C 11,1 C 63 % 1010,3 hPa 0,0 l/m 0 min 0 min 0 W/m 35,4 km/h (5 Bft) 95,74 %
31.12.2022 23:12 16,3 C 15,6 C 11,1 C 63 % 1010,5 hPa 0,0 l/m 0 min 0 min 0 W/m 35,4 km/h (5 Bft) 95,65 %
31.12.2022 23:14 16,3 C 15,6 C 11,1 C 63 % 1010,4 hPa 0,0 l/m 0 min 0 min 0 W/m 19,3 km/h (3 Bft) 97,87 %
31.12.2022 23:16 16,3 C 15,6 C 11,1 C 63 % 1010,4 hPa 0,0 l/m 0 min 0 min 0 W/m 25,7 km/h (4 Bft) 97,87 %
31.12.2022 23:18 16,4 C 15,6 C 11,1 C 63 % 1010,5 hPa 0,0 l/m 0 min 0 min 0 W/m 38,6 km/h (5 Bft) 97,87 %
31.12.2022 23:20 16,4 C 15,6 C 11,1 C 63 % 1010,4 hPa 0,0 l/m 0 min 0 min 0 W/m 41,8 km/h (6 Bft) 97,87 %
31.12.2022 23:22 16,4 C 15,6 C 11,1 C 63 % 1010,5 hPa 0,0 l/m 0 min 0 min 0 W/m 35,4 km/h (5 Bft) 95,74 %
31.12.2022 23:24 16,4 C 15,6 C 11,1 C 63 % 1010,5 hPa 0,0 l/m 0 min 0 min 0 W/m 29,0 km/h (5 Bft) 97,87 %
31.12.2022 23:26 16,4 C 15,6 C 11,1 C 63 % 1010,5 hPa 0,0 l/m 0 min 0 min 0 W/m 29,0 km/h (5 Bft) 97,83 %
31.12.2022 23:28 16,4 C 15,6 C 11,1 C 63 % 1010,6 hPa 0,0 l/m 0 min 0 min 0 W/m 32,2 km/h (5 Bft) 95,74 %
31.12.2022 23:30 16,4 C 15,6 C 11,1 C 63 % 1010,6 hPa 0,0 l/m 0 min 0 min 0 W/m 32,2 km/h (5 Bft) 97,87 %
31.12.2022 23:32 16,4 C 15,6 C 11,1 C 63 % 1010,6 hPa 0,0 l/m 0 min 0 min 0 W/m 29,0 km/h (5 Bft) 97,87 %
31.12.2022 23:34 16,4 C 15,6 C 11,1 C 63 % 1010,7 hPa 0,0 l/m 0 min 0 min 0 W/m 32,2 km/h (5 Bft) 97,87 %
31.12.2022 23:36 16,4 C 15,6 C 11,1 C 63 % 1010,7 hPa 0,0 l/m 0 min 0 min 0 W/m 48,3 km/h (6 Bft) 97,87 %
31.12.2022 23:38 16,5 C 15,6 C 11,1 C 63 % 1010,7 hPa 0,0 l/m 0 min 0 min 0 W/m 25,7 km/h (4 Bft) 95,74 %
31.12.2022 23:40 16,5 C 15,6 C 11,1 C 63 % 1010,8 hPa 0,0 l/m 0 min 0 min 0 W/m 32,2 km/h (5 Bft) 95,65 %
31.12.2022 23:42 16,5 C 15,6 C 11,1 C 63 % 1010,8 hPa 0,0 l/m 0 min 0 min 0 W/m 29,0 km/h (5 Bft) 97,87 %
31.12.2022 23:44 16,6 C 15,6 C 11,1 C 63 % 1010,7 hPa 0,0 l/m 0 min 0 min 0 W/m 38,6 km/h (5 Bft) 97,87 %
31.12.2022 23:46 16,6 C 15,6 C 11,1 C 62 % 1010,8 hPa 0,0 l/m 0 min 0 min 0 W/m 35,4 km/h (5 Bft) 95,74 %
31.12.2022 23:48 16,6 C 15,6 C 11,1 C 62 % 1010,6 hPa 0,0 l/m 0 min 0 min 0 W/m 19,3 km/h (3 Bft) 97,87 %
31.12.2022 23:50 16,6 C 15,6 C 11,1 C 63 % 1010,6 hPa 0,0 l/m 0 min 0 min 0 W/m 22,5 km/h (4 Bft) 95,74 %
31.12.2022 23:52 16,6 C 15,6 C 11,1 C 62 % 1010,7 hPa 0,0 l/m 0 min 0 min 0 W/m 29,0 km/h (5 Bft) 97,87 %
31.12.2022 23:54 16,6 C 15,6 C 11,1 C 62 % 1010,6 hPa 0,0 l/m 0 min 0 min 0 W/m 38,6 km/h (5 Bft) 100,00 %
31.12.2022 23:56 16,6 C 15,6 C 11,1 C 63 % 1010,6 hPa 0,0 l/m 0 min 0 min 0 W/m 25,7 km/h (4 Bft) 97,83 %
31.12.2022 23:58 16,6 C 15,6 C 11,1 C 62 % 1010,6 hPa 0,0 l/m 0 min 0 min 0 W/m 38,6 km/h (5 Bft) 93,62 %
_ Min-Zeit 01:40 00:58 00:00 21:26 02:00 - - - - 01:40 05:32
Minimum _ 13,2 C 12,2 C 8,9 C 62 % 1004,3 hPa - - - - 6,4 km/h (2 Bft) 59,57 %
_ Max-Zeit 12:20 11:50 11:00 01:42 23:40 00:56 00:00 00:34 12:04 03:00 01:00
Maximum _ 17,7 C 17,2 C 12,8 C 96 % 1010,8 hPa 0,2 l/m 0 min 2 min 128 W/m 77,2 km/h
S-SW (9 Bft)
100,00 %
Durchschnitt _ 15,9 C 15,0 C 11,2 C 81 % 1007,4 hPa #0,2 l/m #0 min. #3:04 h 45 W/m 34,2 km/h (5 Bft) 97,05 %
© 2023 W. Hausmann